[{"header": {"dx": 0.06612293990616946, "dy": 0.0552356325346848, "nx": 98, "ny": 59, "la1": 35.046912555036876, "la2": 31.78801023549047, "lo1": -121.43107172385933, "lo2": -114.95102361305473, "refTime": "2026041015", "parameterCategory": 1, "parameterNumber": 2}, "data": [0.61, -0.0, -0.0, -0.0, -0.0, -0.59, -1.6, -1.84, -1.4, -0.0, -0.0, -0.0, -0.0, -0.0, -0.0, -0.0, -0.0, -0.0, -0.0, -0.0, -0.0, 1.6, 1.74, 2.21, 2.98, 3.22, 3.58, 3.48, 2.68, 2.68, 1.98, -0.0, -1.26, -1.26, 0.0, 0.89, 0.89, 0.89, -0.0, -0.0, -0.95, 1.34, 0.0, 3.16, 5.6, 6.4, 7.89, 7.89, 8.14, 7.15, 6.02, 5.49, 5.69, 6.39, 6.32, 6.32, 7.02, 8.06, 7.69, 8.05, 7.44, 7.07, 6.44, 6.44, 6.79, 7.44, 8.63, 9.6, 11.37, 12.8, 12.8, 11.66, 10.68, 9.97, 9.54, 9.26, 8.9, 6.71, 3.58, 1.34, 0.89, 0.0, 0.0, 0.0, 0.0, 1.0, 2.6, 3.6, 5.59, 8.3, 9.6, 9.3, 9.3, 9.92, 10.66, 9.3, 8.05, 7.03, 1.16, -0.0, -0.0, -0.0, -0.0, -0.59, -1.33, -1.84, -1.4, -0.0, -0.0, -0.0, -0.0, -0.0, -0.0, -0.0, -0.0, -0.0, -0.0, -1.0, -0.0, -0.0, 1.6, 2.53, 2.21, 2.6, 2.98, 2.84, 2.84, 1.8, 2.0, 1.98, 1.79, 0.0, 0.0, 0.0, 0.0, 0.89, -0.0, -1.26, 1.34, 0.0, 2.84, 3.79, 5.46, 7.2, 7.63, 6.98, 6.26, 5.09, 4.81, 5.77, 6.79, 6.7, 6.68, 7.06, 7.41, 8.06, 8.43, 8.05, 8.0, 7.42, 6.44, 6.44, 6.79, 7.81, 8.63, 9.9, 10.95, 12.37, 13.29, 12.58, 11.36, 10.45, 9.7, 9.81, 10.7, 6.71, 3.58, 1.34, 0.89, 0.0, 0.0, 0.0, 0.0, 1.0, 2.6, 3.6, 5.59, 8.3, 9.6, 9.3, 9.3, 9.92, 10.66, 9.3, 8.05, 7.03, 1.16, -0.0, -0.0, -0.0, -0.0, -0.61, -1.16, -1.61, -1.4, -0.65, -0.0, -0.0, -0.0, -1.0, -0.8, -0.0, -0.0, -0.0, -0.0, -0.0, -1.0, -0.0, -0.0, 2.21, 2.84, 2.6, 2.6, 2.6, 2.21, 0.99, 0.88, 1.66, 1.8, 3.58, 2.4, 2.21, 0.0, 0.0, 0.89, 0.89, 0.0, 1.98, 3.79, 4.81, 5.46, 6.16, 6.2, 5.29, 4.8, 4.81, 5.43, 6.44, 6.79, 7.07, 6.7, 7.07, 7.44, 8.05, 8.95, 8.55, 8.0, 7.42, 6.08, 5.77, 6.39, 7.69, 9.03, 10.15, 11.09, 12.3, 12.8, 12.58, 11.96, 10.7, 10.28, 9.83, 11.18, 9.39, 5.31, 2.0, 1.26, 1.0, 0.0, 0.0, -0.76, 0.0, 1.9, 3.58, 6.4, 9.6, 10.87, 10.28, 9.62, 9.62, 9.67, 8.63, 7.35, 7.21, 0.53, -0.0, -0.0, -0.0, -0.0, -0.61, -1.16, -1.61, -1.2, -0.54, -0.0, -0.0, -0.0, -1.0, -1.0, -0.0, -0.0, -0.0, -0.0, -0.0, -0.0, -0.0, -0.0, -0.0, 1.2, 2.84, 2.6, 2.97, 2.0, -0.0, -0.0, -0.0, 0.88, 2.98, 4.66, 4.02, 3.13, 2.68, 1.0, 1.0, 2.21, 3.58, 4.22, 4.8, 5.09, 5.36, 5.29, 4.84, 5.46, 6.18, 6.32, 7.03, 7.03, 6.82, 6.44, 7.42, 8.0, 8.55, 8.95, 8.82, 8.3, 7.03, 5.77, 5.69, 6.39, 7.41, 8.67, 9.52, 10.65, 11.73, 12.8, 12.74, 11.15, 9.39, 8.91, 8.8, 9.7, 10.25, 6.94, 1.98, 0.0, 0.99, 1.13, -0.98, -2.0, -0.99, 1.98, 5.21, 8.06, 10.9, 11.9, 10.28, 8.93, 8.03, 7.42, 7.42, 7.89, 7.89, 0.53, -0.0, -0.0, -0.0, -0.0, -0.0, -0.61, -1.4, -1.2, -0.71, -0.0, -0.0, -0.0, -1.0, -1.0, -0.0, -0.0, -0.0, -0.0, -0.0, -0.0, -0.0, -0.0, -0.0, 1.0, 2.53, 3.6, 3.2, 1.9, -0.0, -0.0, -0.99, -0.0, 1.98, 5.6, 5.64, 5.2, 4.92, 2.4, 1.58, 2.0, 3.58, 4.02, 4.92, 5.36, 5.29, 5.34, 5.82, 6.8, 6.44, 7.03, 7.2, 6.8, 6.44, 6.82, 7.42, 8.3, 8.82, 9.24, 8.82, 7.35, 5.82, 4.16, 4.83, 5.89, 6.64, 7.35, 8.03, 9.66, 11.28, 12.7, 12.8, 10.52, 8.9, 7.11, 5.6, 6.4, 7.42, 5.51, 1.49, 0.0, 0.96, 0.96, -0.81, -2.4, 0.0, 3.72, 7.35, 9.56, 11.25, 10.91, 9.66, 7.68, 5.82, 5.75, 7.11, 8.8, 9.06, 0.53, -0.0, -0.0, -0.0, -0.0, -0.0, -0.53, -1.2, -1.2, -0.71, -0.0, -0.0, -0.0, -1.26, -1.58, -1.26, -0.0, -0.0, -0.0, -0.0, -1.58, -0.0, -0.0, 2.21, 2.53, 2.53, 3.6, 3.6, 2.21, 2.21, -0.0, -0.0, -0.0, 1.79, 3.95, 5.16, 5.59, 5.75, 2.68, -1.34, -0.0, 1.6, 3.58, 5.2, 5.2, 5.43, 6.21, 6.4, 6.4, 6.7, 6.7, 6.4, 6.4, 6.4, 6.8, 7.89, 8.3, 8.63, 9.54, 9.06, 5.82, 3.22, 3.2, 3.91, 4.96, 6.14, 6.95, 7.02, 7.97, 10.9, 12.79, 12.7, 12.04, 10.25, 8.01, 5.09, 3.58, 2.84, 3.35, 0.88, 0.0, 1.73, 1.73, 0.0, -0.79, 0.81, 5.63, 8.66, 10.12, 9.48, 9.23, 8.38, 5.82, 3.13, 4.02, 7.42, 9.33, 8.95, 0.53, -0.0, -0.0, -0.0, -0.0, -0.0, -0.65, -1.2, -1.2, -0.71, -0.0, 0.6, -0.0, -0.95, -2.24, -1.26, -1.26, 1.34, 0.89, 0.89, 0.89, 1.34, 0.89, 1.79, 3.13, 3.2, 3.2, 3.2, 2.21, 1.58, 2.21, 1.26, 1.26, 2.24, 3.58, 4.41, 5.29, 6.58, 3.6, -1.9, -3.2, -0.0, 1.8, 4.11, 5.36, 5.06, 6.39, 6.79, 6.07, 5.75, 6.23, 6.16, 6.7, 6.7, 6.98, 7.89, 8.33, 8.46, 8.9, 7.42, 3.79, 1.7, 1.63, 3.09, 3.91, 5.76, 6.95, 7.41, 8.43, 11.09, 12.56, 12.56, 12.22, 12.58, 10.93, 8.05, 4.15, 1.2, 2.53, 4.01, 1.55, 2.47, 3.11, 1.54, 0.79, 2.93, 6.2, 8.46, 9.4, 8.46, 7.22, 4.36, 1.26, 0.89, 3.47, 7.35, 9.6, 9.03, 0.65, -0.0, -0.0, -0.0, -0.0, -0.65, -0.65, -1.2, -1.49, -0.71, -0.0, 0.57, -0.0, -0.0, -0.0, -0.95, -0.95, 0.89, 0.45, 0.89, 0.89, 0.89, -0.0, 0.89, 1.34, 2.68, 2.68, 2.68, 2.24, 1.9, 3.13, 3.13, 3.58, 4.47, 4.02, 3.58, 4.02, 5.29, 4.46, -0.0, -2.21, -2.21, -0.0, 1.6, 2.73, 4.29, 5.1, 6.95, 7.06, 6.7, 5.43, 6.28, 7.21, 7.42, 7.55, 7.6, 8.05, 8.49, 7.15, 4.57, 1.49, 0.88, 1.63, 3.2, 4.16, 5.69, 7.69, 8.4, 9.06, 10.93, 12.74, 13.21, 13.32, 12.49, 11.6, 10.26, 8.05, 5.75, 5.75, 6.82, 5.59, 3.02, 2.88, 2.99, 2.76, 4.24, 5.9, 7.13, 7.9, 7.18, 3.64, 0.0, -1.26, 0.45, 4.22, 8.4, 9.65, 8.67, 0.53, 0.53, -0.0, -0.0, -0.0, -0.65, -0.65, -1.2, -1.49, -1.24, -0.71, -0.0, -0.0, -0.0, -0.0, -0.0, 1.34, 0.89, 0.89, 1.34, -0.0, -0.0, -0.0, -0.0, -0.0, 2.24, 2.24, 1.79, 1.79, 3.13, 3.13, 3.13, 3.58, 4.02, 3.47, 3.58, 4.02, 4.47, 3.6, -0.0, -2.21, -2.21, -1.9, -0.0, -0.0, 0.98, 3.0, 6.32, 7.27, 7.35, 7.64, 6.82, 7.63, 7.56, 7.6, 6.98, 6.79, 6.51, 4.47, 1.9, 0.88, 0.78, 1.63, 3.2, 4.65, 6.44, 8.55, 9.33, 9.36, 10.73, 12.52, 13.41, 13.41, 12.05, 10.7, 10.25, 9.7, 9.26, 9.97, 9.6, 7.44, 4.4, 3.61, 4.32, 4.08, 4.24, 4.84, 6.33, 6.17, 3.55, 0.95, -0.95, -1.34, 0.99, 5.15, 8.67, 9.67, 8.67, 0.53, 0.53, 0.65, 0.54, -0.0, -0.54, -0.65, -1.2, -1.2, -1.24, -1.24, -0.0, -0.0, -0.0, -0.0, -0.0, 0.45, 1.34, 1.79, 1.34, -0.0, -0.0, -0.0, -0.0, -0.0, -0.0, -0.0, 1.79, 2.24, 3.58, 3.13, -0.0, -0.0, 1.9, 3.13, 4.47, 4.02, 2.0, -0.0, -1.9, -2.24, -2.24, -1.79, -0.95, -0.0, 0.99, 2.53, 4.54, 6.79, 8.03, 8.03, 8.03, 8.05, 7.35, 7.11, 6.71, 4.8, 1.98, 0.45, -0.0, -0.0, 0.8, 2.17, 4.12, 5.3, 7.07, 8.95, 9.4, 8.94, 9.7, 11.52, 12.44, 12.43, 11.09, 10.05, 9.18, 8.63, 9.03, 9.86, 11.09, 9.18, 4.43, 3.8, 4.28, 4.28, 4.28, 5.04, 5.59, 5.0, 3.22, 1.34, 0.95, 0.0, 1.6, 5.59, 9.3, 9.3, 7.06, 0.53, 0.61, 0.53, 0.65, -0.0, -0.0, -0.65, -0.65, -1.2, -1.24, -1.58, -0.8, -0.0, -0.0, -0.0, -0.0, 1.34, 0.95, 1.6, 1.34, 1.58, 1.58, -0.0, -0.0, -0.0, -1.9, -0.0, -0.0, 1.79, 2.68, 2.24, -0.0, -0.0, 1.34, 1.34, 3.58, 3.2, -0.0, -1.58, -1.79, -1.79, -1.34, 0.89, -0.0, -0.0, 1.13, 2.84, 4.19, 5.15, 5.69, 6.14, 7.08, 7.36, 7.18, 6.64, 6.39, 4.19, 0.0, -3.58, -1.7, -0.0, 1.62, 2.47, 4.2, 5.06, 6.88, 8.38, 8.63, 7.89, 8.01, 9.24, 9.62, 10.05, 9.4, 8.67, 8.4, 7.54, 7.41, 8.06, 9.6, 7.76, 3.2, 0.0, 3.22, 4.01, 4.43, 4.75, 5.09, 4.46, 3.74, 3.47, 2.84, 1.7, 2.26, 5.64, 9.27, 8.03, 3.79, -0.0, 0.53, 1.16, 1.16, 0.53, -0.0, -0.0, -0.54, -1.0, -1.24, -1.58, -1.26, -0.95, -0.0, -0.0, 0.6, 1.6, 2.12, 2.68, 3.53, 3.82, 3.2, 2.4, 3.2, 1.9, -0.0, -0.0, -0.0, -0.0, -0.0, -0.0, -0.0, -0.0, -0.0, -0.0, 0.89, -0.0, -0.0, -1.79, -2.24, -1.34, -0.0, -0.0, -0.0, -0.0, -0.0, 1.41, 2.8, 3.68, 3.4, 3.15, 4.8, 5.4, 5.48, 4.75, 5.4, 6.56, 3.63, -2.68, -4.29, -0.79, 1.56, 2.47, 2.47, 3.16, 4.75, 6.43, 7.24, 6.53, 6.79, 6.8, 7.45, 6.26, 5.6, 4.84, 4.84, 5.2, 4.54, 5.09, 5.44, 4.47, 2.24, 0.0, 1.13, 3.22, 4.22, 4.46, 4.8, 4.24, 4.66, 4.24, 3.49, 2.2, 3.09, 6.7, 8.6, 4.81, 0.0, -0.0, 0.65, 0.53, 1.16, 1.16, 0.53, -0.0, -0.0, -0.71, -0.71, -1.24, -1.26, -1.2, -0.63, -0.0, 0.6, 1.26, 2.0, 2.91, 3.39, 3.87, 4.3, 3.87, 3.39, 2.91, 2.4, 1.86, 1.86, 1.26, -0.0, 0.89, 1.34, -1.26, -0.0, -0.0, -1.0, -1.26, -1.26, -1.79, -1.79, -1.26, -1.2, -0.87, -0.88, -1.3, -1.41, -0.0, -0.0, 1.41, 1.23, 1.41, 1.45, 2.18, 2.31, 3.7, 3.7, 5.86, 10.12, 4.6, -3.33, -2.31, 0.79, 1.54, 0.82, -0.0, 1.6, 3.59, 4.76, 5.38, 7.13, 7.79, 7.82, 5.43, 1.34, -1.0, 0.0, 0.89, 1.26, 2.54, 2.68, 2.0, 2.68, 2.54, 0.99, 1.74, 3.93, 4.54, 3.84, 4.0, 5.16, 5.16, 4.4, 3.84, 4.95, 7.18, 7.35, 2.53, 0.89, -0.0, -0.0, 0.65, 0.61, 1.16, 1.16, 0.61, -0.0, -0.0, -0.71, -0.57, -1.26, -1.6, -1.2, -0.63, -0.0, 0.6, 1.86, 2.8, 3.39, 3.87, 4.3, 4.3, 3.82, 3.39, 3.07, 3.07, 2.6, 2.24, 1.34, 0.45, 0.89, -1.79, -1.34, -0.95, -1.26, -1.34, -1.34, -1.34, -1.34, -1.26, -1.74, -1.41, -1.3, -1.3, -1.3, -0.98, -1.41, -0.0, -0.0, -0.0, -0.0, -0.0, -0.0, -0.0, -0.0, 1.8, 10.16, 11.6, -0.0, -2.39, -0.0, -0.0, -0.0, -0.0, -0.0, -0.0, 1.52, 4.32, 6.87, 8.56, 8.76, 6.32, 1.2, -2.68, -2.24, -0.0, -0.0, 1.79, 2.24, 2.68, 3.47, 3.6, 1.98, 0.87, 2.95, 3.35, 3.16, 3.22, 4.8, 5.34, 5.05, 5.05, 5.77, 6.98, 6.44, 3.6, 1.79, 0.6, -0.0, -0.0, 0.65, 0.61, 1.16, 1.13, 0.61, 0.53, -0.0, -0.0, -0.71, -0.99, -1.26, -0.6, -0.0, -0.0, 1.6, 2.4, 2.91, 3.39, 3.87, 3.87, 3.87, 3.39, 3.53, 3.13, 2.68, 2.68, 2.24, 1.6, 0.63, 1.34, -1.79, 1.79, 1.79, 1.34, 0.89, 1.34, 0.89, -1.26, -1.6, -2.84, -3.16, -2.73, -1.55, -1.41, -1.27, -1.8, -0.0, -0.0, -0.0, -0.0, -0.0, 1.79, 1.34, 0.0, 7.45, 11.03, 3.87, -1.75, -2.26, -2.4, -1.18, -1.25, -1.25, -0.0, 1.32, 3.68, 5.72, 7.27, 9.04, 7.76, 2.68, -1.34, -0.0, 1.8, 3.22, 3.58, 2.97, 2.84, 3.16, 3.16, 2.41, 1.49, 1.83, 1.83, 1.8, 2.41, 3.79, 5.82, 5.72, 5.46, 5.69, 6.44, 5.2, 3.6, 3.6, 0.95, 0.8, -0.0, -0.0, 0.65, 0.61, 1.16, 1.13, 1.16, 0.61, -0.0, -0.0, -0.65, -1.24, -0.57, -0.0, -0.0, 1.2, 2.12, 2.6, 3.07, 3.39, 3.82, 3.82, 3.53, 3.53, 3.13, 3.13, 2.68, 2.6, 2.6, 2.12, 0.95, 1.34, 1.34, 0.45, 0.89, 0.89, 1.34, 1.79, -1.26, -1.2, -1.6, -3.16, -3.16, -1.41, -1.41, -1.41, -1.8, -1.6, -2.21, -0.0, -0.0, -0.0, -0.0, -0.0, 2.21, 4.66, 5.2, 1.23, -0.0, -2.73, -2.48, -2.84, -1.8, -1.6, -1.2, -0.0, 3.68, 6.01, 7.42, 9.15, 8.05, 3.39, -0.0, 1.72, 4.96, 7.06, 6.8, 5.75, 4.15, 2.3, 1.66, 0.87, 1.13, 0.87, 0.88, 0.96, 0.88, 2.6, 4.95, 5.06, 5.09, 6.32, 6.7, 5.72, 4.46, 4.46, 1.6, 0.8, 0.71, -0.0, -0.0, 0.65, 0.61, 1.16, 1.13, 1.13, 0.51, -0.0, -0.0, -0.65, -0.71, -0.0, -0.0, 1.2, 1.7, 2.6, 2.68, 3.07, 3.53, 3.53, 3.53, 3.58, 3.13, 2.68, 2.68, 2.17, 2.6, 2.6, 2.12, 1.79, 0.89, 0.45, 0.89, 1.79, 1.34, 1.34, -2.24, -1.58, -1.8, -1.98, -1.8, -1.27, -1.27, -1.6, -0.0, -0.0, -0.0, -0.0, -0.0, -0.0, -0.0, -0.0, -0.0, -0.0, -0.0, -0.0, -0.0, -0.0, -1.6, -1.6, -0.0, -0.0, 1.79, -0.0, 2.73, 7.2, 10.22, 9.81, 7.63, 2.24, -0.0, 2.35, 5.51, 8.76, 9.92, 9.27, 7.35, 4.47, 0.87, 0.0, 0.0, 0.0, 0.0, 0.0, 1.63, 4.03, 4.94, 4.56, 5.0, 6.32, 7.35, 6.35, 5.37, 5.37, 1.7, 1.58, 1.24, 0.54, 0.54, 0.65, 0.65, 0.53, 1.16, 1.33, 1.13, 0.59, -0.0, -0.0, -0.0, -0.0, 0.6, 1.6, 2.12, 2.68, 2.68, 2.68, 2.68, 3.07, 3.07, 2.68, 1.79, 1.34, 1.34, 1.6, 1.7, 2.12, 2.17, 1.6, 0.95, 0.0, 1.34, 1.79, 1.34, 1.34, 1.79, -2.21, -1.6, -1.6, -1.6, -1.6, -0.0, -0.0, -0.0, -0.0, -0.0, -0.0, -0.0, -0.0, -0.0, -0.0, -0.0, -0.0, -0.0, 1.58, 1.9, -0.0, -2.21, -1.8, -1.41, -0.0, -0.0, 1.79, 3.16, 8.17, 12.01, 11.15, 8.49, 5.2, 3.11, 3.27, 6.42, 10.28, 12.27, 11.5, 10.23, 8.3, 3.58, -1.26, 0.0, 0.0, 0.0, 0.0, 0.79, 2.4, 3.4, 4.03, 5.13, 6.05, 6.42, 5.76, 4.94, 4.94, 2.12, 1.86, 1.24, 1.2, 1.2, 1.2, 0.65, 0.65, 0.65, 0.61, 0.61, 0.61, 0.61, -0.0, -0.0, -0.0, 0.6, 1.26, 1.86, 2.17, 2.24, 1.79, 1.79, 2.4, 2.97, 3.13, 0.89, 0.89, 0.89, 0.63, 0.95, 1.6, 1.7, 1.7, 1.6, 1.26, 1.26, 1.6, 1.79, 1.79, -0.0, -0.0, -0.0, -0.0, -0.0, -0.0, -0.0, -0.0, -0.0, -0.0, -0.0, -0.0, -0.0, -0.0, -0.0, -0.0, -0.0, -0.0, 2.24, 2.68, 3.13, -0.0, -0.0, -1.98, -1.66, -1.66, -0.99, 1.34, 4.19, 7.81, 11.18, 13.21, 15.13, 13.99, 11.18, 8.33, 7.6, 9.83, 11.96, 12.3, 9.06, 6.2, 0.0, -1.9, 0.0, 0.0, 0.81, 1.47, 0.84, 0.76, 1.65, 3.91, 4.71, 5.18, 5.52, 5.38, 4.96, 4.96, 2.12, 1.86, 1.58, 1.2, 1.2, 1.2, 1.2, 0.65, 0.65, 0.65, 0.65, 0.65, 0.65, 0.54, 0.57, 0.6, 0.6, 0.6, 2.0, 2.54, 2.4, 1.2, 0.95, 2.0, 2.68, 2.68, 1.79, 0.89, 0.89, 0.89, 0.89, 0.95, 1.2, 1.6, 1.7, 2.12, 2.12, 2.12, 2.24, 2.24, 2.12, 1.58, 1.58, 1.24, 1.24, -0.0, -0.0, -0.0, -0.0, -0.0, -0.0, -0.0, -0.0, -0.0, -0.0, -0.0, -0.0, 1.79, 2.24, 3.13, 2.68, -0.0, -1.6, -3.16, -1.8, -1.8, -1.98, -0.0, 4.02, 7.11, 9.97, 13.49, 17.25, 18.06, 16.09, 12.87, 10.29, 9.62, 11.87, 11.06, 9.8, 6.71, 0.95, -2.98, -1.2, 0.0, 1.0, 1.49, 1.41, 0.74, 0.8, 3.21, 4.71, 3.95, 4.12, 4.71, 4.83, 4.83, 2.12, 1.86, 1.58, 1.9, 1.9, 1.9, 1.2, 1.2, 0.65, 0.65, 0.54, 0.54, 0.71, 0.71, 0.57, 0.8, 0.6, 0.95, 1.6, 2.4, 2.54, 1.86, 1.86, 2.12, 2.6, 2.63, 2.68, 2.24, 2.24, 1.79, 1.79, 1.34, 1.34, 1.79, 1.7, 2.12, 2.12, 2.17, 2.24, 2.68, 2.68, 2.6, 2.4, 2.4, 2.23, 2.21, 1.9, -0.0, -0.0, -0.0, -0.0, -0.0, -0.0, -0.0, -0.0, -0.0, 1.2, 1.79, 2.68, 1.9, 1.79, -2.68, -3.6, -2.84, -2.21, -2.21, -1.2, -0.0, 3.16, 5.82, 8.06, 11.83, 16.12, 17.27, 15.47, 12.86, 8.76, 9.49, 9.48, 10.28, 10.25, 8.33, 3.39, -1.6, -1.79, 0.89, 0.89, 1.34, 3.22, 2.29, 2.31, 2.44, 3.27, 2.99, 3.44, 4.2, 3.7, 3.7, 2.12, 1.86, 1.86, 2.23, 1.86, 1.58, 1.2, 0.65, 0.65, 1.2, 1.2, 1.24, 1.24, 1.24, 1.24, 1.26, 1.26, 1.2, 1.2, 1.7, 2.4, 2.4, 2.4, 2.6, 2.63, 3.07, 3.07, 3.07, 3.13, 2.68, 2.68, 2.24, 2.24, 2.24, 2.24, 2.24, 2.24, 2.68, 2.68, 2.68, 2.68, 2.68, 2.63, 2.6, 2.4, 1.86, 1.9, 1.58, -0.0, -0.0, -0.0, -0.0, -0.0, -0.0, -0.0, -0.0, 1.74, 2.0, 2.24, 0.0, -1.34, -2.4, -2.98, -2.6, -1.9, -1.2, -0.0, -0.0, 0.99, 1.41, 3.8, 8.24, 12.89, 12.8, 4.03, 5.68, 7.0, 7.2, 7.16, 8.01, 9.0, 8.67, 6.51, 2.4, 1.34, 0.89, 0.0, 2.21, 3.79, 4.07, 3.55, 2.2, 0.99, 1.6, 2.11, 2.9, 3.09, 3.09, 1.79, 1.79, 2.12, 2.0, 1.86, 1.49, 1.2, 0.53, 0.53, 1.2, 1.2, 1.2, 1.24, 1.24, 1.24, 1.24, 1.58, 1.26, 1.6, 1.7, 2.12, 2.6, 2.6, 2.63, 3.07, 3.07, 3.07, 3.07, 3.07, 3.13, 3.13, 3.13, 3.13, 2.68, 2.68, 2.68, 2.68, 2.68, 2.68, 2.68, 2.68, 2.68, 2.68, 2.6, 2.4, 2.4, 2.68, 1.79, 1.79, -0.0, -0.0, -0.0, -0.0, -0.0, -0.0, -0.0, 0.99, 1.2, 1.34, 0.0, -1.26, -2.0, -1.9, -1.9, -0.99, -0.0, -0.0, -0.0, 1.26, -0.0, -0.0, 2.8, 10.68, 3.82, -2.84, 0.0, 2.82, 4.95, 6.32, 6.48, 7.36, 8.03, 7.35, 4.8, 2.98, 1.2, 0.99, 2.68, 3.35, 2.68, 3.07, 1.6, 1.34, 0.89, 1.49, 2.2, 2.8, 2.8, 1.79, 1.79, 1.79, 2.12, 1.9, 1.2, 1.16, 0.61, 0.53, 1.2, 1.2, 1.2, 1.2, 1.24, 1.24, 1.58, 1.58, 1.86, 1.86, 1.7, 2.12, 2.17, 2.6, 2.6, 2.63, 3.07, 3.07, 3.07, 3.07, 3.13, 3.13, 3.13, 3.13, 3.13, 3.13, 3.13, 3.13, 3.13, 3.13, 3.13, 3.13, 3.13, 3.07, 2.63, 2.4, 2.4, 2.8, 1.9, 1.58, 1.9, 1.9, -0.0, -0.0, -0.0, -0.0, -0.0, -0.0, -0.0, -0.0, 2.24, 0.0, -1.79, -2.0, -0.85, -0.87, -0.0, -0.0, 1.4, 2.4, 1.79, 1.34, 10.04, 13.86, 11.15, 3.82, -1.27, 0.0, 2.23, 4.28, 5.02, 5.89, 6.51, 6.35, 5.46, 3.16, 0.87, 0.87, 0.99, 0.0, -1.58, 1.0, 1.34, 1.6, 1.79, 1.58, 2.3, 2.4, 2.4, 1.79, 1.79, 1.79, 1.7, 1.86, 1.61, 1.16, 0.61, 0.61, 1.0, 1.4, 1.61, 1.61, 1.9, 1.9, 1.58, 1.58, 1.86, 1.86, 1.86, 2.12, 2.17, 2.6, 2.6, 2.6, 2.63, 3.07, 3.07, 3.07, 3.13, 3.13, 3.13, 3.13, 3.13, 3.13, 3.13, 3.13, 3.13, 3.13, 3.13, 3.13, 3.13, 3.07, 2.63, 2.6, 2.6, 2.6, 2.6, 2.17, 2.4, 1.86, 2.21, 1.9, -0.0, -0.0, -0.0, -0.0, -0.0, 2.24, 2.68, 2.24, 1.34, -1.58, -0.99, -0.98, -0.0, -0.0, 0.87, 1.4, 1.0, 3.35, 8.3, 13.86, 15.01, 14.87, 10.02, 3.95, 0.82, 2.17, 3.16, 4.92, 5.86, 6.58, 5.72, 3.48, 0.0, -1.0, -2.24, -3.13, -3.04, -2.4, 0.89, 2.24, 2.68, 2.6, 2.07, 2.07, 2.07, 1.79, 1.79, 1.79, 1.7, 1.24, 1.4, 1.16, 1.16, 0.61, 1.2, 1.2, 1.61, 1.61, 1.61, 1.9, 1.9, 1.9, 1.86, 1.86, 1.86, 2.0, 2.6, 2.6, 2.6, 2.6, 2.63, 2.63, 3.07, 3.07, 3.13, 3.13, 3.13, 3.13, 3.13, 3.58, 3.13, 3.13, 3.13, 3.13, 3.13, 3.13, 3.13, 2.68, 2.63, 2.6, 2.6, 2.6, 2.6, 2.6, 2.6, 2.6, 2.12, 1.9, 1.9, 1.9, -0.0, -0.0, -0.0, 1.79, 2.24, 2.68, 1.79, -0.0, -1.13, -0.0, -0.0, -0.0, -0.0, -0.0, 0.0, 2.53, 7.2, 11.15, 14.67, 15.61, 15.24, 12.72, 6.64, 2.44, 3.25, 4.01, 5.0, 5.7, 5.69, 3.84, 0.0, -2.24, -2.68, -3.13, -3.2, -2.98, 0.0, 1.9, 2.6, 2.21, 2.84, 2.41, 2.41, 1.79, 1.79, 1.34, 1.26, 1.2, 1.0, 1.16, 1.16, 1.16, 1.2, 1.2, 1.2, 1.61, 1.88, 1.9, 1.9, 1.9, 2.23, 2.23, 2.4, 2.4, 2.4, 2.6, 2.6, 2.6, 2.63, 2.63, 2.63, 3.07, 3.07, 3.13, 3.07, 3.13, 3.13, 3.13, 3.58, 3.58, 3.13, 3.13, 3.13, 3.13, 3.13, 2.68, 2.68, 2.68, 2.68, 2.68, 2.68, 2.68, 2.68, 2.6, 2.6, 2.12, 2.12, 2.4, 1.0, -0.0, -0.0, -0.0, 1.34, 2.24, 1.79, -0.0, -0.0, -0.0, -0.0, -0.0, -0.0, 0.89, 0.0, 2.68, 5.21, 9.06, 11.62, 12.3, 13.75, 16.03, 10.7, 2.35, 0.78, 2.41, 3.85, 4.87, 5.21, 3.72, 0.76, -1.2, -2.24, -2.68, -3.13, -3.04, -0.8, 1.13, 1.98, 1.6, 2.15, 2.07, 2.07, 1.79, 1.79, 1.2, 0.99, 0.65, 0.53, 1.16, 1.16, 1.16, 1.2, 1.2, 1.49, 1.9, 1.61, 1.88, 2.5, 2.5, 2.15, 2.4, 2.4, 2.4, 2.4, 2.6, 2.6, 2.6, 2.63, 2.63, 2.63, 2.63, 3.07, 3.07, 3.07, 3.07, 3.13, 3.13, 3.58, 3.58, 3.58, 3.13, 3.13, 3.13, 3.13, 2.68, 2.68, 2.68, 2.68, 2.68, 2.68, 2.68, 2.24, 2.24, 2.24, 2.12, 1.7, 1.7, 1.58, -0.0, -1.9, -0.0, -0.0, 0.89, 1.34, -0.0, -0.0, -0.0, -0.0, 1.26, 0.89, 0.89, 1.26, 2.84, 5.21, 7.03, 7.89, 8.9, 12.07, 15.2, 11.06, 0.99, -0.84, 1.54, 3.45, 4.16, 4.37, 2.11, 0.0, -1.9, -2.0, -2.24, -2.54, -2.97, -2.24, 0.0, 0.99, 1.6, 1.8, 2.3, 2.3, 1.79, 1.79, 1.6, 1.24, 0.65, 0.53, 1.16, 1.16, 1.16, 1.16, 1.2, 1.24, 1.24, 1.9, 1.9, 2.5, 2.5, 2.5, 2.5, 2.4, 2.4, 2.4, 2.4, 2.6, 2.63, 2.63, 2.63, 2.63, 2.63, 2.63, 3.07, 3.07, 3.07, 3.09, 3.13, 3.58, 3.58, 3.58, 3.13, 3.13, 3.13, 2.68, 2.68, 3.13, 2.68, 2.24, 2.24, 2.24, 2.24, 2.24, 2.24, 1.79, 1.79, 1.79, 1.79, 1.34, 1.79, -0.0, -0.0, -0.0, -1.34, 0.89, 0.89, -0.0, -0.0, 0.99, 1.58, 1.34, 0.0, 0.0, 2.98, 6.16, 7.89, 8.05, 8.6, 11.28, 13.64, 10.93, 2.98, -1.66, 0.84, 2.97, 4.16, 3.6, 1.47, 0.0, -0.95, 1.34, -1.34, -2.4, -2.98, -2.21, -0.95, 0.0, 0.85, 1.6, 2.2, 2.2, 2.24, 2.24, 1.86, 1.24, 0.65, 0.53, 1.16, 1.16, 1.16, 1.16, 1.16, 1.2, 1.49, 1.49, 1.9, 2.21, 2.5, 2.5, 2.5, 2.5, 2.8, 2.4, 2.91, 2.91, 2.63, 2.63, 2.6, 2.6, 2.63, 2.63, 2.63, 3.07, 3.07, 3.09, 3.58, 3.58, 3.58, 3.13, 3.13, 3.13, 2.68, 2.68, 2.68, 2.68, 2.24, 2.68, 2.68, 1.79, 1.79, 1.79, 1.79, 1.79, 1.34, 1.34, 1.34, 1.34, 0.89, -0.0, -0.0, -1.26, -1.79, -1.79, -1.34, -0.0, -0.0, -0.0, 1.0, 2.68, 1.26, 0.0, 2.0, 5.75, 9.24, 11.18, 11.28, 12.16, 12.87, 11.88, 6.82, 0.87, 0.0, 2.37, 4.2, 4.03, 2.18, 1.74, 2.0, 1.34, 0.45, -1.6, -2.6, -1.74, -0.0, 0.89, 0.0, 0.99, 1.66, 1.66, 2.68, 2.68, 2.4, 1.9, 1.2, 1.0, 1.16, 1.16, 1.16, 1.16, 1.61, 1.88, 1.61, 1.49, 1.9, 1.9, 2.5, 2.5, 2.5, 2.68, 2.91, 2.91, 2.91, 2.91, 2.91, 2.63, 2.6, 2.6, 2.6, 2.6, 2.68, 2.68, 2.63, 3.07, 3.13, 3.58, 3.58, 3.13, 3.13, 3.13, 2.68, 2.68, 2.68, 2.68, 2.24, 2.68, 2.68, 1.79, 1.34, 1.34, 1.34, 1.34, 1.2, 1.34, 1.34, 1.34, 0.89, 0.45, 0.89, -1.34, -1.79, -1.79, -1.34, 0.89, -0.0, -0.0, -0.0, 2.68, 4.24, 3.79, 2.53, 2.53, 7.11, 12.52, 15.01, 15.03, 14.5, 12.52, 9.67, 5.82, 0.73, 0.72, 2.96, 4.08, 3.47, 3.15, 3.35, 3.95, 3.13, 1.6, -0.0, -0.85, -0.0, 1.58, 0.89, 1.26, 2.21, 2.21, 3.09, 3.09, 2.91, 2.15, 1.2, 1.2, 1.0, 1.16, 1.16, 1.16, 1.88, 1.88, 1.88, 1.61, 1.9, 1.9, 2.15, 2.5, 2.68, 2.68, 2.91, 2.91, 2.91, 2.91, 2.91, 2.6, 2.6, 2.6, 3.04, 2.6, 2.68, 2.68, 2.68, 3.13, 3.13, 3.58, 3.58, 3.13, 3.13, 3.13, 3.13, 2.68, 2.68, 2.68, 2.68, 2.68, 2.68, 1.79, 1.79, 1.79, 1.6, 1.2, 1.2, 0.95, 0.95, 1.34, 0.89, 0.0, 0.89, -0.89, -1.79, -1.79, 0.89, 0.45, -0.0, 1.0, 1.26, 2.21, 5.09, 5.64, 1.98, 0.87, 3.48, 10.73, 17.43, 17.91, 12.89, 8.6, 9.3, 9.45, 5.09, 1.6, 1.49, 3.48, 4.11, 4.41, 4.55, 5.02, 5.81, 4.47, 2.6, 0.85, 0.85, 2.53, 2.24, 2.24, 2.54, 2.54, 3.53, 3.53, 3.32, 2.5, 1.88, 1.2, 1.2, 1.2, 1.4, 1.4, 1.88, 1.88, 1.88, 1.88, 1.61, 1.9, 1.9, 2.5, 2.68, 2.68, 2.91, 2.91, 2.91, 2.91, 2.91, 2.6, 2.6, 2.6, 2.63, 3.04, 2.6, 2.6, 2.6, 2.68, 3.13, 3.13, 3.58, 3.58, 3.13, 3.13, 3.13, 2.68, 2.68, 2.68, 2.68, 2.68, 2.68, 2.68, 2.24, 2.12, 1.7, 1.6, 1.6, 1.2, 0.95, 0.95, 1.2, 0.95, 0.0, 0.0, -0.95, 0.0, 1.34, 0.89, -0.0, -0.0, 1.0, 2.24, 4.02, 4.02, 1.34, 0.0, 0.88, 7.44, 16.82, 20.05, 8.4, 0.0, 2.2, 7.28, 8.19, 5.77, 3.95, 4.41, 5.24, 5.51, 5.7, 5.78, 6.71, 6.2, 5.09, 3.22, 2.53, 3.6, 4.66, 4.02, 3.58, 3.58, 3.53, 3.53, 3.39, 2.68, 2.5, 1.61, 1.2, 1.2, 1.2, 1.2, 1.2, 1.61, 1.61, 1.88, 1.61, 1.9, 1.9, 2.15, 2.5, 2.91, 2.91, 2.91, 2.91, 2.91, 2.91, 2.63, 2.6, 2.6, 2.63, 2.63, 2.63, 2.63, 2.63, 2.68, 3.13, 3.13, 3.13, 3.58, 3.58, 3.13, 3.13, 2.68, 2.68, 2.68, 2.68, 2.68, 2.68, 2.6, 2.6, 2.6, 2.12, 2.12, 1.7, 1.6, 1.6, 1.2, 1.2, 1.6, 0.95, 0.0, 0.0, 0.0, 0.89, -0.0, -1.0, -1.0, -0.0, -0.0, 2.24, 2.68, 1.34, 0.0, 3.76, 7.18, 14.39, 19.53, 12.49, 2.4, 0.95, 4.4, 6.79, 7.45, 7.15, 7.15, 7.6, 7.6, 7.6, 7.6, 7.6, 7.55, 6.79, 6.16, 4.66, 4.41, 4.92, 5.36, 4.92, 4.92, 3.53, 3.53, 3.39, 2.91, 2.5, 2.15, 1.9, 1.61, 1.61, 1.2, 1.2, 1.2, 1.61, 1.61, 1.88, 1.9, 1.9, 2.15, 2.5, 2.91, 2.91, 2.91, 2.91, 2.91, 2.91, 2.63, 2.63, 2.6, 2.63, 2.63, 2.63, 2.63, 2.63, 2.68, 3.13, 3.13, 3.13, 3.58, 3.58, 3.13, 3.13, 2.68, 2.68, 2.68, 2.68, 2.68, 2.68, 2.6, 2.6, 2.6, 2.6, 2.12, 2.12, 2.12, 1.7, 1.26, 1.26, 1.26, 1.6, 1.26, 0.0, 0.0, 1.34, -1.9, -1.9, -1.9, -1.58, -0.0, 1.34, 0.89, 1.26, 3.6, 6.52, 9.3, 12.39, 15.47, 16.25, 14.42, 11.84, 9.7, 7.28, 7.2, 7.76, 8.46, 8.94, 9.39, 9.83, 9.83, 8.94, 8.46, 8.36, 7.89, 6.98, 5.77, 5.36, 5.81, 6.26, 6.26, 3.53, 3.53, 3.39, 2.91, 2.91, 2.15, 2.15, 1.9, 1.9, 1.2, 1.2, 1.2, 1.61, 1.61, 1.88, 1.61, 1.9, 2.15, 2.5, 2.91, 2.91, 2.91, 2.91, 2.91, 2.91, 2.63, 2.63, 2.63, 2.63, 2.63, 2.63, 2.63, 2.68, 2.68, 2.68, 3.13, 3.13, 3.58, 3.58, 3.13, 3.13, 2.68, 2.68, 2.68, 2.68, 2.68, 2.68, 2.6, 2.6, 2.6, 2.6, 2.6, 2.12, 2.12, 2.12, 1.86, 1.58, 1.26, 1.26, 1.6, 1.58, 0.95, 1.34, -2.0, -1.58, -0.0, -0.0, -1.0, -0.0, 0.89, 2.24, 2.97, 7.06, 10.16, 11.66, 12.42, 13.84, 16.22, 18.17, 16.97, 11.47, 6.35, 5.09, 6.55, 8.49, 9.39, 10.28, 10.28, 9.83, 9.83, 9.39, 8.91, 8.01, 7.6, 6.26, 5.81, 6.26, 6.26, 3.09, 3.09, 3.09, 3.07, 2.91, 2.4, 2.4, 2.15, 1.9, 1.2, 1.2, 1.2, 1.61, 1.61, 1.9, 1.9, 1.9, 2.15, 2.5, 2.91, 2.91, 2.91, 2.91, 2.91, 2.91, 3.07, 2.63, 2.63, 2.63, 2.63, 2.63, 2.63, 2.68, 2.68, 2.68, 3.13, 3.13, 3.58, 3.58, 3.13, 2.68, 2.68, 2.24, 2.68, 2.24, 2.68, 2.6, 2.6, 2.6, 2.6, 2.6, 2.6, 2.0, 1.86, 1.86, 1.86, 1.86, 1.58, 1.26, 1.26, 1.26, 0.95, 1.34, -1.79, -1.79, 1.79, -1.26, -1.0, -1.0, -0.0, 0.89, 1.34, 5.64, 11.18, 12.04, 11.18, 11.66, 14.57, 18.5, 18.56, 13.12, 5.69, 3.16, 4.4, 6.21, 8.49, 9.39, 9.83, 10.28, 10.28, 9.83, 9.83, 9.39, 8.49, 7.6, 7.15, 6.66, 6.22, 3.13, 3.13, 3.09, 3.07, 3.07, 2.49, 2.4, 2.15, 1.9, 1.2, 1.2, 1.61, 1.61, 1.9, 1.9, 1.9, 1.9, 2.15, 2.8, 2.91, 2.91, 2.91, 2.91, 2.91, 2.91, 2.91, 2.63, 2.63, 2.63, 2.63, 2.63, 2.63, 2.68, 2.68, 2.68, 3.13, 3.13, 3.13, 3.13, 3.13, 2.68, 2.68, 2.24, 2.68, 2.24, 2.68, 2.6, 2.4, 2.4, 2.4, 2.4, 2.4, 1.86, 1.86, 1.86, 1.86, 1.86, 1.86, 1.26, 1.26, 1.26, 0.6, 0.0, -1.34, -1.34, 1.79, -1.58, -1.26, -1.26, -0.0, 0.89, 1.34, 4.92, 10.7, 14.28, 12.42, 11.09, 13.43, 17.16, 17.35, 13.78, 9.28, 5.6, 3.83, 3.51, 5.81, 8.05, 8.94, 9.39, 9.83, 9.83, 9.83, 9.83, 9.39, 8.49, 8.05, 7.57, 6.66, 3.13, 3.13, 3.13, 3.13, 3.07, 2.63, 2.4, 2.15, 1.61, 1.61, 1.61, 1.9, 1.9, 1.9, 1.9, 1.9, 1.9, 1.9, 2.91, 2.91, 2.91, 2.91, 2.91, 2.91, 2.91, 2.91, 3.07, 2.63, 2.63, 2.63, 2.63, 2.63, 2.68, 2.68, 3.13, 3.13, 3.13, 3.13, 3.13, 3.13, 2.68, 2.24, 2.24, 1.79, 2.68, 2.24, 1.86, 1.86, 1.86, 1.86, 1.86, 1.86, 1.86, 1.86, 1.86, 1.86, 1.86, 1.58, 1.58, 1.58, 1.58, 0.8, 0.0, 1.79, 1.79, -2.24, -1.79, -1.79, 1.34, 0.89, 0.89, 0.0, 3.6, 8.94, 13.23, 13.49, 12.52, 12.98, 14.3, 13.64, 11.89, 10.19, 7.28, 3.32, 2.24, 3.58, 5.81, 7.6, 8.49, 8.94, 9.39, 9.83, 9.83, 9.39, 8.94, 8.9, 8.46, 7.57, 3.13, 3.13, 3.13, 3.13, 3.07, 2.63, 2.4, 1.9, 1.9, 1.9, 1.9, 1.9, 1.9, 1.9, 1.9, 1.9, 1.9, 1.9, 2.91, 2.91, 2.91, 2.91, 2.91, 2.91, 2.91, 2.91, 3.07, 2.63, 2.63, 2.63, 2.63, 2.68, 2.68, 2.68, 3.13, 3.13, 3.13, 3.13, 3.13, 2.68, 2.68, 2.24, 2.24, 2.12, 2.12, 2.97, 2.12, 1.26, 1.26, 1.86, 1.86, 1.86, 1.86, 1.86, 1.86, 1.86, 1.86, 1.58, 1.58, 1.58, 1.24, 0.71, 0.0, 1.34, 1.34, 1.79, -1.79, 2.24, 1.34, 0.89, 0.89, 0.0, 2.84, 6.07, 8.85, 13.57, 16.33, 16.01, 11.18, 6.18, 4.4, 5.31, 5.31, 3.58, 2.68, 3.58, 5.36, 7.15, 8.05, 8.94, 9.39, 9.83, 10.25, 9.8, 9.36, 8.9, 8.9, 8.9, 3.13, 3.13, 3.13, 3.13, 3.13, 2.63, 2.4, 1.9, 1.9, 1.9, 1.9, 1.9, 1.9, 1.9, 1.9, 1.9, 1.9, 2.4, 2.4, 2.91, 2.91, 2.91, 2.8, 2.91, 2.91, 2.91, 3.07, 3.07, 2.63, 2.63, 2.68, 2.68, 2.68, 2.68, 3.13, 3.13, 3.13, 2.68, 2.68, 2.68, 2.68, 2.24, 2.17, 2.12, 2.17, 2.17, 2.12, 1.7, 1.6, 1.49, 1.58, 1.86, 1.86, 1.86, 1.86, 1.86, 1.58, 1.24, 1.24, 1.24, 1.49, 1.24, 0.0, 1.34, 1.34, 1.34, 2.24, 2.24, 1.34, 0.89, 0.0, 0.0, 1.8, 4.0, 6.14, 9.83, 14.57, 19.08, 13.96, 4.47, 0.0, 3.13, 5.36, 5.81, 4.87, 5.75, 6.21, 7.55, 8.46, 9.36, 9.81, 10.16, 10.62, 10.16, 9.24, 8.8, 8.8, 8.8, 3.13, 3.13, 3.13, 3.13, 3.07, 2.63, 2.4, 2.15, 2.15, 2.15, 2.15, 1.9, 1.9, 1.9, 1.9, 1.9, 2.23, 2.4, 2.4, 2.8, 2.8, 2.8, 2.8, 2.91, 2.91, 3.07, 3.07, 3.07, 2.63, 2.63, 2.68, 2.68, 2.68, 2.68, 2.68, 2.68, 2.68, 2.68, 2.68, 2.68, 2.68, 2.68, 2.17, 2.17, 2.17, 2.17, 2.17, 2.12, 2.12, 2.12, 1.86, 1.86, 1.86, 1.86, 1.86, 1.58, 1.24, 1.24, 1.24, 1.49, 1.9, 1.49, 0.57, 0.0, 1.34, 1.79, -0.0, -0.0, 1.34, 0.89, 0.0, 0.0, 1.6, 3.79, 5.58, 7.35, 11.06, 16.37, 18.58, 14.3, 9.6, 8.97, 9.81, 8.84, 7.56, 7.47, 7.47, 7.89, 8.82, 9.33, 9.83, 10.32, 10.93, 10.02, 9.54, 9.06, 9.06, 9.06, 3.13, 3.13, 3.13, 3.13, 3.07, 2.49, 2.4, 2.15, 2.15, 2.15, 2.15, 1.9, 1.9, 1.9, 2.23, 2.23, 2.4, 2.4, 2.4, 2.4, 2.4, 2.4, 2.8, 2.91, 2.91, 3.07, 3.07, 3.07, 3.07, 2.63, 2.68, 2.68, 2.68, 2.68, 2.68, 2.68, 2.68, 2.68, 2.68, 2.68, 2.68, 2.17, 2.17, 2.17, 2.12, 2.17, 2.17, 2.17, 2.17, 1.86, 1.86, 1.86, 1.86, 1.86, 1.86, 1.9, 1.49, 1.49, 1.2, 1.49, 1.9, 1.49, 0.71, 0.0, 1.34, 1.79, -0.0, 1.34, 0.89, 0.89, 0.0, 1.2, 1.98, 4.19, 5.6, 6.02, 7.55, 11.15, 14.42, 15.5, 15.47, 15.78, 15.27, 11.62, 7.73, 6.06, 6.7, 7.69, 8.67, 8.67, 9.8, 10.01, 10.43, 10.25, 9.75, 9.33, 9.33, 9.33, 3.13, 3.13, 3.13, 3.09, 3.07, 2.91, 2.8, 2.8, 2.4, 2.4, 2.4, 2.23, 2.23, 1.86, 2.23, 2.4, 2.4, 2.4, 2.4, 2.4, 2.4, 2.4, 2.8, 2.91, 3.07, 3.07, 3.07, 3.07, 3.07, 2.63, 2.63, 2.68, 2.68, 2.68, 2.68, 2.68, 2.68, 2.68, 2.68, 2.68, 2.68, 2.17, 2.17, 2.17, 2.12, 2.12, 2.17, 2.6, 2.4, 2.23, 1.86, 1.86, 1.86, 1.58, 1.9, 1.9, 1.49, 1.2, 1.2, 1.2, 1.49, 1.9, 1.24, 0.57, 0.0, 1.34, -0.0, 0.89, 1.34, 0.89, 0.0, 0.0, 1.2, 2.98, 3.58, 4.02, 5.36, 8.01, 9.49, 9.62, 11.76, 16.74, 19.1, 15.04, 7.6, 3.64, 4.46, 6.95, 7.64, 7.81, 8.0, 8.67, 9.65, 10.0, 9.6, 9.2, 9.2, 9.2, 3.58, 3.58, 3.58, 3.09, 2.91, 2.91, 2.91, 2.8, 2.8, 2.4, 2.4, 2.4, 1.86, 1.86, 2.0, 2.6, 2.6, 2.6, 2.4, 2.4, 2.4, 2.4, 2.49, 3.07, 3.07, 3.07, 3.07, 3.07, 3.07, 2.63, 2.63, 2.68, 2.68, 2.68, 2.68, 2.68, 2.68, 2.68, 2.68, 2.68, 2.68, 2.17, 2.17, 2.12, 2.12, 2.12, 2.12, 2.0, 2.4, 2.23, 2.23, 2.23, 2.23, 1.9, 1.9, 1.61, 1.61, 1.4, 1.2, 1.2, 1.49, 1.9, 1.58, 1.24, 0.0, 1.34, 1.79, 1.79, -2.24, -1.79, 1.34, 1.34, 1.34, 1.34, 1.79, 2.0, 3.9, 6.02, 7.2, 6.64, 8.6, 14.46, 18.04, 17.59, 13.33, 6.66, 2.99, 4.8, 6.24, 6.32, 7.41, 7.68, 8.68, 9.3, 9.3, 9.27, 9.27, 9.27, 3.58, 3.58, 3.58, 3.09, 2.91, 2.91, 2.91, 2.91, 2.91, 2.4, 2.4, 2.4, 2.0, 2.17, 2.17, 2.17, 2.17, 2.17, 2.17, 2.6, 2.6, 2.6, 2.6, 2.63, 2.49, 2.49, 2.63, 2.63, 2.63, 2.63, 2.63, 2.63, 2.68, 2.68, 2.68, 2.68, 2.68, 2.68, 2.68, 2.68, 2.24, 2.17, 2.17, 2.12, 2.12, 2.12, 2.12, 1.86, 1.86, 2.23, 2.23, 2.23, 1.9, 1.9, 1.88, 1.88, 1.88, 1.88, 1.4, 1.2, 1.2, 1.24, 1.58, 1.58, 0.6, 1.34, 1.79, 1.79, -2.24, -2.24, -1.79, -1.79, -1.34, 0.89, 0.89, 1.58, 3.39, 4.6, 5.06, 5.37, 7.44, 11.34, 14.64, 15.78, 16.25, 10.88, 3.07, 0.74, 5.06, 5.37, 6.01, 6.73, 7.76, 8.42, 8.32, 8.06, 8.06, 8.06, 3.58, 3.58, 3.53, 3.09, 2.91, 2.91, 2.91, 2.91, 2.91, 2.91, 2.4, 2.4, 2.6, 2.17, 2.17, 2.17, 2.17, 2.17, 2.17, 2.17, 2.6, 2.6, 2.6, 2.6, 2.4, 2.4, 2.6, 2.6, 2.63, 2.63, 2.63, 2.63, 2.68, 2.68, 2.68, 2.68, 2.68, 2.68, 2.68, 2.24, 2.24, 2.17, 2.17, 2.12, 2.12, 2.12, 2.12, 1.86, 1.86, 2.23, 2.23, 2.23, 1.9, 1.9, 1.88, 1.88, 1.88, 1.88, 1.88, 1.2, 1.2, 1.24, 1.24, 1.58, 1.26, 0.0, -1.34, -2.24, -2.24, -2.24, -2.24, -1.79, -1.79, -1.34, 0.89, 1.26, 2.21, 3.16, 3.63, 5.15, 6.8, 8.4, 10.66, 13.49, 15.96, 11.3, -2.98, 0.0, 2.98, 4.46, 4.74, 5.77, 6.11, 6.79, 6.44, 6.44, 6.44, 6.44, 3.58, 3.58, 3.53, 3.09, 2.91, 2.91, 2.91, 2.91, 2.91, 2.91, 2.6, 2.6, 2.6, 2.17, 2.17, 2.17, 2.17, 2.17, 2.17, 2.17, 2.17, 2.6, 2.6, 2.6, 2.6, 2.6, 2.6, 2.6, 2.6, 2.6, 2.63, 2.63, 2.68, 2.68, 2.68, 2.68, 2.68, 2.68, 2.68, 2.24, 2.24, 2.17, 2.17, 2.12, 2.12, 2.12, 1.86, 1.86, 1.86, 2.23, 2.23, 1.9, 1.9, 2.5, 2.21, 1.88, 1.88, 1.88, 1.88, 1.2, 1.2, 1.0, 1.24, 1.24, 1.26, 0.0, -1.26, -2.4, -2.97, -2.68, -2.24, -1.79, 1.34, -1.34, 0.89, -0.0, 1.2, 1.74, 2.84, 4.54, 6.16, 6.4, 7.42, 11.37, 16.37, -1.34, -5.16, -2.15, 0.0, 2.53, 3.84, 3.72, 4.43, 5.06, 4.74, 4.43, 4.43, 4.43, 3.58, 3.58, 3.53, 2.97, 2.91, 2.91, 2.91, 2.91, 2.91, 3.07, 2.63, 2.6, 2.6, 2.17, 2.17, 2.17, 2.17, 2.17, 2.17, 2.17, 2.17, 2.17, 2.6, 2.6, 2.6, 2.6, 2.6, 2.6, 2.6, 2.6, 2.6, 2.6, 2.68, 2.68, 2.68, 2.68, 2.68, 2.68, 2.24, 2.24, 2.24, 2.17, 2.17, 2.12, 2.12, 2.12, 1.86, 1.86, 1.86, 2.23, 2.23, 1.9, 1.9, 2.21, 2.21, 1.88, 1.88, 1.88, 1.88, 1.2, 1.2, 0.65, 1.24, 1.24, 0.71, 0.0, 0.0, -1.2, -2.21, -2.21, -2.4, -1.34, 0.89, 0.89, -0.0, -0.0, -0.0, 1.2, 2.21, 4.15, 5.51, 5.75, 6.51, 10.25, 12.43, 0.45, -4.87, -2.68, -1.26, 0.89, 2.54, 3.16, 3.22, 3.72, 4.29, 3.47, 3.47, 3.47, 3.53, 3.53, 3.53, 3.39, 3.32, 3.32, 2.91, 2.91, 3.07, 3.07, 2.63, 2.6, 2.6, 2.17, 2.17, 2.17, 2.17, 2.12, 2.12, 2.17, 2.17, 2.17, 2.17, 2.6, 2.6, 2.6, 2.6, 2.6, 2.6, 2.6, 2.6, 2.6, 2.68, 2.68, 2.68, 2.68, 2.68, 2.24, 2.24, 2.24, 2.24, 2.17, 2.17, 2.12, 2.12, 2.12, 1.86, 1.86, 1.86, 2.23, 2.23, 1.9, 1.9, 1.88, 1.88, 1.88, 1.88, 1.88, 1.4, 1.4, 1.2, 0.65, 1.2, 1.2, 0.65, 0.65, 0.99, 0.0, 0.0, -1.58, -1.0, -1.0, 0.0, 0.89, 0.89, 0.89, -0.0, 1.58, 2.97, 4.02, 4.85, 5.59, 7.1, 17.36, 13.56, 2.24, -3.84, -1.98, -0.8, -0.0, 1.26, 2.0, 2.0, 2.6, 3.47, 2.76, 2.76, 2.76, 3.53, 3.53, 3.53, 3.39, 3.39, 3.39, 3.39, 3.09, 3.07, 3.07, 2.63, 2.6, 2.6, 2.17, 2.17, 2.17, 2.24, 2.12, 2.12, 2.12, 2.17, 2.17, 2.17, 2.17, 2.17, 2.17, 2.6, 2.6, 2.6, 2.6, 2.6, 2.68, 2.68, 2.68, 2.68, 2.68, 2.24, 2.24, 2.24, 2.24, 2.24, 2.17, 2.17, 2.12, 2.12, 2.12, 1.86, 1.86, 1.86, 2.23, 1.9, 1.9, 2.21, 1.88, 1.88, 1.88, 1.88, 1.88, 1.4, 1.4, 1.2, 0.65, 1.2, 1.2, 1.2, 0.61, 1.4, 1.9, 1.79, 0.89, 0.89, 0.0, 0.0, 0.0, 0.0, 0.89, 0.89, 2.24, 3.58, 4.02, 4.47, 5.75, 11.18, 17.43, 13.84, 2.68, -3.07, -1.66, -1.6, -1.49, -0.71, -0.0, 1.26, 1.13, 2.0, 0.87, 0.87, 0.87, 3.53, 3.53, 3.53, 3.39, 3.39, 3.39, 3.53, 3.53, 3.07, 3.07, 2.63, 2.6, 2.6, 2.17, 2.17, 2.24, 2.24, 2.24, 2.12, 2.12, 2.12, 2.12, 2.12, 2.12, 2.17, 2.17, 2.17, 2.17, 2.6, 2.6, 2.6, 2.68, 2.68, 2.68, 2.68, 2.24, 2.24, 2.24, 2.24, 2.24, 2.24, 2.17, 2.12, 2.12, 2.12, 1.86, 1.86, 1.86, 1.86, 2.23, 1.9, 1.9, 2.21, 1.88, 1.88, 1.88, 1.88, 1.4, 1.4, 1.4, 1.2, 0.65, 1.2, 1.2, 1.4, 1.16, 1.84, 2.5, 2.68, 2.24, 1.79, 0.89, -1.58, -1.0, -1.26, 0.0, 0.0, 2.21, 3.6, 4.38, 4.38, 5.36, 10.25, 15.91, 14.11, 2.68, -4.22, -3.35, -2.68, -2.86, -2.54, -0.95, 1.34, 0.0, 0.0, 0.0, 0.0, 0.0, 3.53, 3.53, 3.39, 3.39, 3.39, 3.39, 3.53, 3.53, 3.07, 3.07, 2.63, 2.6, 2.6, 2.17, 2.24, 2.24, 2.24, 2.24, 2.24, 2.12, 2.12, 2.12, 2.12, 2.12, 2.12, 2.12, 2.17, 2.17, 2.17, 2.17, 2.24, 2.24, 2.24, 2.24, 2.24, 2.24, 2.24, 2.24, 2.24, 2.24, 2.17, 2.17, 2.12, 2.12, 2.12, 1.86, 1.86, 1.86, 1.86, 1.9, 1.9, 1.9, 1.88, 1.88, 1.88, 1.88, 1.88, 1.4, 1.4, 1.16, 1.16, 0.65, 1.2, 1.4, 1.88, 1.16, 1.84, 2.21, 2.4, 2.68, 1.34, 0.89, -1.58, -2.0, -1.26, 0.0, 0.0, 1.98, 3.58, 3.58, 4.0, 6.2, 8.01, 12.49, 14.44, 5.36, -3.95, -3.79, -3.07, -3.22, -3.13, -2.68, -2.0, -1.79, -1.58, -1.2, -1.2, -1.2, 3.53, 3.53, 3.39, 3.39, 3.39, 3.53, 3.53, 3.53, 3.07, 3.07, 2.63, 2.6, 2.6, 2.17, 2.24, 2.24, 2.24, 2.24, 2.24, 2.24, 2.12, 2.12, 2.12, 2.12, 2.12, 2.12, 2.12, 2.17, 2.24, 2.24, 2.24, 2.24, 2.24, 2.24, 2.24, 2.24, 2.24, 2.24, 2.24, 2.24, 2.12, 2.12, 2.12, 2.12, 2.12, 1.86, 1.86, 1.86, 2.23, 1.9, 1.9, 2.21, 1.88, 1.88, 1.88, 1.88, 1.88, 1.16, 1.16, 1.16, 1.16, 0.53, 0.65, 1.4, 1.88, 1.84, 1.84, 1.84, 2.5, 1.9, 0.0, 0.0, -1.58, -2.0, -1.58, 0.0, 0.0, 1.98, 2.68, 3.16, 4.6, 5.75, 7.12, 9.54, 13.86, 9.83, -1.34, -5.05, -4.11, -2.84, -3.47, -4.02, -3.13, -2.24, -2.0, -1.9, -1.9, -1.9, 3.53, 3.53, 3.53, 3.39, 3.53, 3.53, 3.53, 3.53, 3.07, 3.07, 2.6, 2.6, 2.6, 2.24, 2.24, 2.24, 2.24, 2.24, 1.79, 1.79, 1.79, 1.79, 1.7, 1.7, 2.12, 2.24, 2.24, 2.24, 2.24, 2.24, 2.24, 2.24, 2.24, 2.24, 2.24, 2.24, 2.24, 2.24, 2.24, 2.24, 2.12, 2.12, 2.12, 2.12, 1.86, 1.86, 1.86, 1.86, 2.23, 1.9, 1.9, 2.21, 1.88, 1.88, 1.88, 1.88, 1.88, 1.16, 1.16, 1.16, 1.16, 0.61, 0.61, 1.4, 1.88, 1.84, 1.84, 1.84, 2.53, 1.98, 0.0, 0.0, -1.26, -1.26, 0.0, 0.0, 0.0, 0.99, 2.41, 2.68, 3.48, 5.21, 6.8, 8.0, 11.84, 12.49, 4.98, -3.47, -4.12, -3.16, -3.6, -4.41, -3.58, -3.13, -2.97, -2.6, -2.6, -2.6, 3.53, 3.53, 3.53, 3.53, 3.53, 3.53, 3.53, 3.09, 3.07, 2.63, 2.6, 2.6, 2.68, 2.24, 2.24, 2.24, 2.24, 2.24, 1.79, 1.79, 1.79, 1.79, 1.79, 1.79, 1.79, 1.79, 1.79, 2.24, 2.24, 2.24, 2.24, 2.24, 2.24, 2.24, 2.24, 2.24, 2.24, 2.24, 2.24, 2.12, 2.12, 2.12, 2.12, 2.12, 1.86, 1.86, 1.86, 1.86, 2.23, 1.9, 1.9, 1.88, 1.88, 1.88, 1.88, 1.88, 1.61, 1.16, 1.16, 1.16, 1.16, 0.61, 0.61, 1.16, 1.61, 1.84, 1.84, 1.84, 2.51, 2.23, 1.2, 0.0, 0.89, 0.89, 0.0, 0.0, 0.0, 0.0, 0.99, 2.23, 3.58, 5.21, 6.82, 8.05, 10.15, 13.01, 10.02, 1.58, -3.47, -3.83, -4.15, -4.41, -4.47, -4.02, -3.58, -3.47, -3.47, -3.47, 3.53, 3.53, 3.53, 3.53, 3.53, 3.53, 3.53, 3.07, 3.07, 2.63, 2.63, 2.68, 2.68, 2.68, 2.24, 2.24, 2.24, 2.24, 1.79, 1.79, 1.79, 1.79, 1.79, 1.79, 1.79, 1.79, 1.79, 1.79, 1.79, 1.79, 1.79, 1.79, 2.24, 2.24, 2.24, 2.24, 2.24, 2.24, 2.24, 2.12, 2.12, 2.12, 2.12, 1.86, 1.86, 1.86, 1.86, 1.86, 1.9, 1.9, 1.9, 1.88, 1.88, 1.88, 1.88, 1.88, 1.61, 1.16, 1.16, 1.16, 1.16, 0.61, 0.61, 1.16, 1.61, 1.84, 1.84, 1.6, 2.23, 2.84, 2.23, 1.9, 1.34, 1.58, 1.34, 0.0, 0.0, 0.0, 0.0, 0.87, 2.68, 5.15, 7.42, 8.4, 9.6, 12.09, 12.3, 8.8, 1.58, -2.68, -4.38, -4.85, -4.92, -4.47, -4.02, -3.58, -3.58, -3.58, 3.53, 3.53, 3.53, 3.53, 3.53, 3.53, 3.09, 3.07, 3.07, 3.13, 3.13, 2.68, 2.68, 2.68, 2.68, 2.24, 2.24, 2.24, 2.24, 2.24, 1.79, 1.79, 1.79, 1.79, 1.79, 1.79, 1.79, 1.79, 1.79, 1.79, 1.79, 1.79, 1.79, 1.79, 1.79, 1.79, 1.79, 2.24, 2.12, 2.12, 2.12, 2.12, 2.12, 1.86, 1.86, 1.86, 1.86, 1.86, 1.9, 1.9, 1.9, 1.88, 1.88, 1.88, 1.88, 1.61, 1.61, 1.16, 1.16, 1.16, 1.16, 1.16, 0.61, 1.16, 1.33, 1.84, 2.07, 1.8, 2.23, 2.86, 2.86, 2.5, 1.79, 2.24, 0.89, 0.0, -1.0, 0.0, 0.0, 0.98, 2.76, 5.15, 7.42, 8.4, 9.49, 10.68, 11.52, 12.04, 9.26, 3.6, -2.4, -4.47, -4.47, -4.47, -3.58, -3.13, -3.13, -3.13, 3.53, 3.53, 3.53, 3.53, 3.53, 3.53, 3.09, 3.07, 3.07, 3.13, 3.13, 2.68, 2.68, 2.68, 2.68, 2.24, 2.24, 2.24, 2.24, 2.24, 1.79, 1.79, 1.79, 1.79, 1.79, 1.79, 1.79, 1.79, 1.79, 1.79, 1.79, 1.79, 1.79, 1.79, 1.79, 1.79, 1.79, 2.24, 2.12, 2.12, 2.12, 2.12, 2.12, 1.86, 1.86, 1.86, 1.86, 1.86, 1.9, 1.9, 1.9, 1.88, 1.88, 1.88, 1.88, 1.61, 1.61, 1.16, 1.16, 1.16, 1.16, 1.16, 0.61, 1.16, 1.33, 1.84, 2.07, 1.8, 2.23, 2.86, 2.86, 2.5, 1.79, 2.24, 0.89, 0.0, -1.2, 0.0, 0.0, 0.98, 2.76, 5.15, 6.82, 8.0, 8.82, 9.33, 10.6, 11.6, 12.07, 9.81, 5.51, 1.0, -1.26, -1.79, -1.79, -0.89, -0.89, -0.89]}, {"header": {"dx": 0.06612293990616946, "dy": 0.0552356325346848, "nx": 98, "ny": 59, "la1": 35.046912555036876, "la2": 31.78801023549047, "lo1": -121.43107172385933, "lo2": -114.95102361305473, "refTime": "2026041015", "parameterCategory": 1, "parameterNumber": 3}, "data": [3.07, 3.58, 3.58, 3.58, 3.58, 3.53, 3.2, 3.07, 2.8, 2.68, 2.24, 1.79, 1.79, 2.24, 2.24, 2.24, 2.24, 1.79, 2.68, 3.13, 3.13, 3.2, 2.6, 2.21, 1.98, 2.41, 2.68, 3.48, 3.58, 3.58, 2.98, 1.34, -1.26, -1.26, -1.34, 0.0, 0.0, 0.0, 1.79, 1.79, 0.95, 0.0, -2.24, -3.16, -2.8, -3.2, -3.15, -3.15, -2.44, 0.0, 1.72, 4.58, 5.69, 5.59, 6.32, 6.32, 6.24, 5.64, 5.38, 4.83, 4.96, 4.71, 4.83, 4.83, 5.1, 4.96, 4.71, 4.8, 4.06, 4.0, 4.0, 3.11, 3.29, 2.49, 2.39, 1.54, 0.81, 0.0, 0.0, 0.0, 0.0, -1.34, -1.79, -2.24, -2.24, -2.0, -1.74, -1.8, -1.6, -3.32, -4.8, -6.2, -6.97, -6.87, -6.56, -6.2, -4.83, -3.91, 2.91, 3.58, 3.58, 3.58, 3.58, 3.53, 3.32, 3.07, 2.8, 2.68, 2.24, 2.24, 1.79, 1.79, 2.68, 2.68, 1.79, 2.68, 2.68, 2.0, 3.13, 3.13, 3.2, 2.53, 2.21, 1.74, 1.98, 2.84, 2.84, 3.6, 4.0, 2.98, 0.0, -1.79, -1.79, -1.34, -1.34, 0.0, 1.34, 1.26, 0.0, -2.24, -2.84, -3.79, -3.9, -3.6, -2.54, -1.55, 0.0, 1.7, 4.01, 4.95, 5.1, 5.21, 5.94, 5.49, 5.76, 5.64, 5.06, 4.83, 4.0, 4.12, 4.83, 4.83, 5.1, 5.21, 4.71, 4.13, 3.91, 3.87, 3.91, 3.14, 2.44, 2.41, 1.62, 0.75, 0.82, 0.0, 0.0, 0.0, 0.0, -1.34, -1.79, -2.24, -2.24, -2.0, -1.74, -1.8, -1.6, -3.32, -4.8, -6.2, -6.97, -6.87, -6.56, -6.2, -4.83, -3.91, 2.91, 3.13, 3.58, 3.58, 3.13, 3.07, 2.91, 2.68, 2.8, 2.6, 2.68, 2.24, 2.24, 2.0, 1.6, 1.79, 1.79, 1.79, 2.24, 3.13, 2.0, 2.68, 2.68, 2.21, 2.84, 1.74, 1.74, 1.74, 2.21, 2.97, 4.38, 4.15, 3.6, 0.0, -1.2, -2.21, -1.79, -1.34, 0.0, 0.0, -1.34, -2.98, -3.79, -4.01, -3.9, -2.64, -0.89, 0.88, 2.4, 4.01, 4.65, 4.83, 5.1, 4.71, 5.21, 4.71, 4.96, 4.83, 4.07, 3.88, 4.0, 4.12, 4.56, 4.95, 5.59, 5.38, 4.92, 4.68, 4.75, 4.1, 4.0, 3.14, 1.6, 0.76, 0.0, 0.0, 0.0, 0.0, -0.76, -1.0, -1.26, -2.0, -2.68, -3.13, -3.04, -2.68, -1.9, -2.68, -3.2, -4.8, -6.21, -7.9, -8.01, -8.01, -6.45, -4.71, -3.27, -2.4, 2.63, 3.13, 3.58, 3.13, 3.13, 3.07, 2.91, 2.68, 2.4, 2.17, 2.24, 2.24, 2.24, 2.0, 2.0, 1.79, 1.79, 1.79, 1.79, 2.24, 2.24, 2.24, 2.24, 1.79, 2.4, 2.84, 1.74, 0.99, 1.0, 2.24, 3.58, 4.47, 4.38, 4.46, 1.55, 0.0, 0.0, 0.0, -2.0, -2.0, -2.21, -2.68, -2.53, -2.4, -1.7, 0.0, 0.88, 3.22, 3.9, 4.42, 4.22, 3.91, 3.91, 4.26, 4.83, 4.12, 4.0, 3.88, 4.07, 3.21, 3.32, 3.91, 4.95, 5.69, 5.59, 5.76, 5.52, 5.86, 5.68, 5.52, 4.0, 2.39, 0.8, 0.0, -0.74, -1.6, -1.62, -0.79, -1.73, -2.98, -3.13, -2.97, -3.39, -3.9, -4.0, -2.97, -2.98, -3.47, -5.64, -7.01, -7.93, -7.9, -8.12, -6.42, -4.12, -1.65, -1.58, -1.58, 2.63, 3.13, 3.13, 3.13, 2.68, 2.68, 3.07, 2.8, 2.4, 2.12, 1.79, 1.79, 2.24, 2.0, 2.0, 1.79, 1.34, 1.79, 2.24, 2.24, 2.68, 2.68, 2.24, 2.68, 2.0, 2.53, 1.8, 1.6, 1.9, 1.79, 2.68, 2.97, 3.13, 2.98, 2.8, 1.41, 1.3, 0.0, -1.2, -1.58, -1.0, 0.0, 0.0, 0.0, 0.0, 0.88, 2.29, 3.33, 3.4, 4.03, 3.91, 3.6, 3.4, 4.03, 4.26, 4.12, 3.32, 3.21, 3.36, 3.21, 3.27, 4.16, 5.82, 6.44, 6.73, 6.64, 6.53, 6.42, 7.24, 7.25, 5.55, 4.0, 2.1, 0.81, -0.79, -2.8, -3.2, -1.65, -1.84, -3.74, -4.47, -4.82, -4.82, -4.85, -4.8, -4.92, -5.58, -6.53, -8.76, -8.84, -7.79, -7.24, -6.14, -3.33, -0.82, -0.79, -1.6, -2.47, 2.63, 3.13, 3.13, 2.68, 2.68, 2.68, 2.63, 2.4, 2.4, 2.12, 1.79, 1.34, 1.34, 1.26, 1.58, 1.26, 1.34, 1.79, 1.79, 2.24, 1.58, 1.79, 2.68, 2.21, 2.53, 2.53, 1.8, 1.8, 2.21, 2.21, 1.79, 1.79, 1.34, 0.0, 0.79, 1.47, 1.6, 0.82, 0.0, -0.0, 1.34, 3.2, 2.68, 2.6, 2.6, 3.11, 3.55, 3.2, 3.2, 2.51, 2.51, 3.2, 3.2, 3.2, 3.4, 3.15, 3.32, 2.35, 2.39, 2.47, 3.33, 4.84, 6.4, 7.03, 7.44, 7.68, 6.95, 6.24, 7.18, 7.01, 6.4, 5.55, 4.81, 3.16, 0.8, -1.7, -2.68, -2.84, -2.23, -4.38, -6.26, -6.94, -6.94, -6.71, -7.11, -8.9, -9.65, -10.24, -10.12, -9.48, -8.46, -6.7, -3.33, 0.0, 0.0, -1.65, -3.11, -4.07, 2.63, 3.13, 2.68, 2.68, 2.68, 2.68, 2.6, 2.4, 2.4, 2.12, 1.79, 1.2, 1.34, 0.95, -0.0, 1.26, 1.26, 0.0, 0.0, 0.0, 0.0, 0.0, 0.0, 0.0, 0.0, 1.6, 1.6, 1.6, 2.21, 1.58, 2.21, 1.26, 1.26, 0.0, 0.0, 0.73, 0.88, 1.32, 1.8, 1.9, 1.6, 3.13, 3.6, 4.11, 4.02, 5.06, 5.59, 5.1, 3.79, 3.45, 2.49, 2.64, 2.51, 2.51, 1.55, 1.58, 1.67, 0.77, 0.81, 1.65, 3.79, 5.09, 6.51, 6.94, 7.03, 7.41, 6.95, 5.76, 5.06, 4.75, 4.71, 4.71, 4.31, 3.14, 2.34, 0.0, -1.66, -2.4, -2.53, -4.81, -6.98, -9.06, -9.33, -9.26, -10.25, -11.71, -12.39, -11.54, -10.18, -9.23, -7.94, -5.09, -1.26, 0.0, -0.87, -3.27, -4.8, -4.92, 2.6, 2.68, 2.68, 2.24, 2.24, 2.6, 2.6, 2.4, 2.23, 2.12, 1.79, 1.7, 1.79, 1.79, 2.24, 0.95, 0.95, 0.0, 0.0, 0.0, 0.0, 0.0, 1.34, 0.0, 0.0, 0.0, 0.0, 0.0, 0.0, 1.9, 0.0, 0.0, 0.0, 0.0, 0.0, 0.0, 0.0, 0.88, 2.98, 3.13, 2.21, 2.21, 3.13, 3.2, 4.09, 5.72, 6.79, 6.95, 6.18, 4.46, 3.11, 2.35, 2.4, 1.65, 0.84, 0.0, 0.0, 0.0, 0.0, 1.83, 3.74, 5.29, 6.51, 6.4, 5.82, 5.69, 5.38, 4.2, 2.47, 2.34, 2.39, 2.33, 1.57, 0.78, 0.77, 0.73, 0.0, -0.82, -2.47, -4.26, -6.98, -9.83, -10.8, -11.23, -11.75, -12.72, -12.54, -11.88, -10.28, -7.97, -5.09, -0.89, 1.26, 0.0, -2.53, -4.2, -5.63, -5.52, 2.63, 2.63, 2.68, 2.24, 2.24, 2.6, 2.6, 2.4, 2.23, 1.86, 2.12, 2.24, 3.13, 2.68, 1.79, 1.34, 0.0, 0.0, 0.0, 0.0, 1.79, 2.68, 2.68, 2.24, 1.34, 0.0, 0.0, 0.0, 0.0, 0.0, 0.0, 0.0, 0.0, 0.0, 0.87, 0.0, 0.0, 0.0, 1.8, 2.68, 2.21, 2.21, 1.9, 2.68, 3.13, 3.9, 6.0, 6.32, 7.27, 6.53, 5.46, 4.26, 2.54, 0.76, 0.0, -1.55, -2.26, -1.63, 0.0, 1.9, 4.38, 6.21, 6.51, 6.4, 5.43, 4.83, 3.88, 3.11, 0.78, 0.0, 0.0, 0.0, 0.0, -0.71, -0.71, -0.79, -1.62, -1.54, -2.49, -3.69, -4.96, -8.8, -10.1, -10.79, -10.88, -11.3, -11.06, -10.28, -8.23, -5.69, -0.95, 0.95, -0.0, -2.97, -4.29, -5.52, -6.45, -5.52, 2.63, 2.63, 2.6, 2.17, 2.24, 2.17, 2.6, 2.4, 2.4, 1.86, 1.86, 1.79, 2.24, 2.24, 1.79, 1.34, 0.0, 0.0, 0.0, 0.0, 2.24, 2.68, 3.13, 3.13, 2.68, 2.24, 2.24, 0.0, 0.0, 0.0, 0.0, 2.24, 2.68, 1.9, 0.0, 0.0, 0.0, 1.0, 2.68, 1.9, -0.0, -0.0, -0.0, 0.95, 2.24, 2.97, 2.53, 3.63, 5.1, 6.42, 6.42, 6.42, 4.83, 3.27, 0.79, 0.0, -2.4, -2.98, 0.0, 3.58, 6.71, 8.01, 8.67, 7.42, 6.06, 4.71, 4.07, 2.89, 0.0, -1.62, -1.54, -1.38, -1.46, -1.39, -2.15, -3.53, -4.71, -4.92, -4.23, -3.47, -3.53, -4.43, -7.6, -7.85, -7.85, -7.85, -7.92, -6.98, -5.72, -2.41, 0.0, -0.95, -3.58, -5.59, -6.39, -6.2, -6.97, -5.49, 2.63, 3.07, 2.63, 2.6, 2.24, 2.24, 2.6, 2.6, 2.4, 1.86, 1.58, 1.6, 1.79, 1.79, 2.24, 1.79, 0.0, -0.95, -0.8, 0.0, 1.58, 1.58, 1.79, 1.79, 2.68, 1.9, 2.24, 2.24, 0.0, 0.0, 0.0, 2.24, 2.24, 0.0, 0.0, 0.0, 1.6, 3.13, 1.58, -0.0, -0.0, -0.0, 0.0, 2.24, 3.13, 3.39, 2.84, 3.35, 4.29, 5.69, 7.68, 8.65, 9.0, 7.97, 6.64, 5.59, 3.35, -1.79, -0.0, 5.09, 9.39, 9.7, 9.06, 8.4, 8.43, 7.64, 6.7, 4.71, 1.58, -0.8, -1.68, -2.06, -2.15, -2.89, -3.61, -4.2, -4.8, -5.76, -5.64, -4.8, -2.12, -1.6, -2.24, -4.84, -4.81, -4.43, -4.07, -3.64, -2.98, -1.49, -0.87, -2.84, -5.09, -6.79, -8.06, -7.73, -6.42, -3.79, 2.68, 2.63, 2.91, 2.91, 2.63, 2.68, 2.24, 2.17, 2.0, 1.86, 1.58, 1.26, 0.95, 1.34, 1.34, 1.2, 0.8, 0.71, 0.0, 0.59, 1.27, 1.6, 1.2, 1.6, 1.9, 2.68, 2.24, 1.34, 2.24, 2.68, 2.24, 1.79, 2.24, 1.79, 0.89, 0.0, 1.34, 1.79, -0.0, -0.0, -0.0, 1.34, 2.24, 3.58, 4.47, 4.47, 5.64, 5.6, 6.13, 6.8, 7.89, 9.6, 10.8, 11.75, 11.09, 10.8, 10.66, 4.54, -0.0, 5.15, 10.25, 10.16, 9.06, 9.06, 10.25, 11.09, 11.26, 9.66, 7.35, 5.1, 3.4, 1.49, 0.0, -2.8, -3.22, -3.22, -2.6, -3.63, -3.64, -2.04, 0.0, 0.0, -1.34, -3.39, -2.41, -2.53, -2.98, -2.4, -1.41, -1.55, -1.41, -2.79, -4.4, -6.94, -8.38, -7.82, -4.01, -0.89, 2.24, 2.6, 2.63, 2.91, 2.91, 2.63, 2.68, 2.24, 2.12, 2.12, 1.86, 1.26, 0.6, 0.63, 0.89, 1.2, 1.26, 1.0, 1.16, 1.13, 1.11, 1.23, 1.11, 1.13, 1.16, 1.2, 1.24, 1.24, 1.26, 1.34, 0.0, 0.0, 1.26, 1.79, 1.79, 2.0, 1.26, 1.26, -0.0, -0.0, 1.26, 2.4, 3.47, 4.38, 5.2, 5.64, 5.81, 5.81, 5.64, 6.14, 5.64, 6.55, 7.28, 7.71, 8.63, 8.63, 10.55, 10.12, 2.76, 5.82, 10.02, 10.25, 9.26, 9.8, 11.18, 11.96, 12.92, 13.49, 12.29, 11.88, 10.91, 8.6, 4.65, 0.0, -2.0, -1.34, 0.0, -1.26, -0.85, 0.0, 1.0, 0.0, -0.85, -2.97, -2.6, -2.95, -3.63, -3.07, -2.0, -1.47, -1.47, -2.2, -3.07, -5.77, -7.97, -6.53, -2.53, 0.0, 1.79, 1.79, 2.6, 3.07, 2.91, 2.91, 3.07, 2.68, 2.24, 2.12, 1.7, 1.26, 0.8, 0.6, 0.63, 0.89, 1.2, 1.24, 1.4, 1.13, 1.11, 1.23, 1.23, 1.27, 1.13, 0.61, 0.61, 0.65, 0.0, 0.0, 0.0, 0.0, -0.0, -0.0, 0.95, 1.26, -0.0, -0.0, -0.0, -0.0, 1.26, 2.6, 4.24, 5.2, 5.2, 5.2, 3.9, 4.24, 4.02, 4.47, 4.47, 4.02, 3.58, 3.13, 2.68, 1.79, 3.6, 5.64, 5.8, 7.6, 9.54, 10.28, 10.28, 10.73, 10.28, 10.28, 10.73, 10.62, 10.79, 9.92, 10.9, 9.56, 6.32, 2.4, -0.0, -0.0, 1.34, 1.34, 0.0, 0.0, 0.0, -0.87, -1.8, -2.98, -3.47, -3.93, -4.19, -3.16, -2.41, -2.4, -2.29, -2.88, -2.88, -4.95, -5.59, -4.83, -1.8, 0.0, 1.2, 1.79, 2.24, 2.6, 3.07, 2.91, 3.39, 3.07, 2.63, 2.24, 2.24, 2.12, 1.49, 1.26, 1.2, 0.89, 1.34, 0.8, 1.2, 1.16, 1.13, 1.11, 1.11, 1.11, 1.13, 0.59, 0.0, 0.0, 0.0, 0.0, -0.8, -0.63, 0.0, -0.0, 0.0, 0.0, 0.0, 0.0, 0.0, 0.0, 1.26, 3.2, 2.84, 3.16, 4.09, 4.66, 4.24, 3.82, 3.6, 3.58, 3.58, 2.68, 2.24, 2.24, 0.0, 0.0, -3.13, -1.49, 3.68, 9.04, 7.85, 6.79, 7.21, 7.06, 7.5, 7.5, 7.15, 6.58, 6.13, 6.87, 7.27, 6.57, 3.45, 0.0, -0.0, 2.24, 3.6, 2.41, 0.0, -0.99, -2.84, -3.16, -3.16, -3.22, -3.74, -4.57, -4.57, -3.6, -3.22, -3.79, -4.16, -4.29, -3.9, -3.55, -4.03, -2.6, -1.8, -1.8, 0.95, 1.6, 1.79, 2.24, 2.6, 3.07, 2.91, 3.39, 2.91, 3.07, 2.68, 2.68, 2.6, 1.86, 1.7, 1.34, 0.89, 0.6, 0.71, 0.65, 0.61, 1.13, 1.27, 1.27, 0.59, 0.59, 0.0, 0.0, 0.0, -0.65, -0.65, -0.71, -0.95, 0.0, 0.0, 0.0, 0.0, 0.0, 0.0, 0.0, 1.26, 2.4, 3.2, 3.16, 3.16, 4.24, 4.24, 4.24, 3.6, 3.2, 2.21, 2.68, 2.68, 2.68, 2.68, 2.24, -2.21, -1.55, 2.6, 6.14, 4.47, 4.09, 3.72, 2.84, 3.6, 3.2, 2.4, 4.47, 6.13, 6.01, 4.12, 2.11, 0.0, -1.13, 1.79, 6.02, 7.44, 5.49, 3.4, 0.82, -1.66, -3.83, -4.15, -3.47, -3.39, -3.47, -4.38, -4.82, -5.29, -5.2, -5.77, -5.06, -4.36, -4.22, -4.46, -4.29, -3.72, -3.72, 0.8, 1.6, 2.12, 2.24, 2.24, 2.6, 3.07, 2.91, 3.39, 3.39, 3.09, 3.13, 3.13, 2.6, 2.12, 1.34, 1.34, 0.6, 0.57, 0.65, 0.0, 0.61, 0.59, 0.59, 0.59, 0.0, 0.0, 0.0, 0.0, -0.54, -0.65, -0.65, -0.71, 0.0, 0.0, 0.0, 0.0, 0.0, 0.0, 0.0, -0.0, 1.58, 3.6, 2.98, 3.6, 3.82, 3.82, 3.2, 3.58, 3.58, 3.13, 3.13, 2.68, 2.24, 2.68, 2.68, 3.13, 3.13, 3.58, 3.13, 3.13, 3.13, 3.2, 3.2, 3.13, 1.34, 0.0, 2.68, 4.09, 3.6, 1.14, -0.7, -2.54, 0.0, 4.47, 8.63, 10.23, 9.56, 7.63, 5.41, 3.27, 0.0, -3.47, -2.68, -1.79, -2.24, -4.02, -5.81, -6.51, -6.44, -6.35, -6.08, -5.72, -6.32, -6.53, -5.64, -5.37, -5.37, 0.57, 1.58, 1.86, 2.17, 2.17, 2.6, 2.6, 2.63, 2.91, 3.32, 3.39, 3.53, 3.13, 2.68, 2.24, 1.34, 1.2, 0.8, 0.71, 0.0, 0.0, 0.0, 0.0, 0.61, 0.61, 0.0, 0.0, 0.0, 0.0, -0.8, -0.57, -0.71, -0.54, -0.8, -0.95, -1.34, 0.0, 0.0, 0.0, 0.0, 0.0, 2.21, 3.2, 3.2, 3.2, 3.2, 3.13, 3.13, 3.13, 3.13, 3.13, 3.13, 2.68, 2.68, 2.24, 2.68, 3.13, 3.13, 2.68, 1.58, 1.9, 2.68, 2.21, 3.6, 4.24, 3.13, 2.24, 0.0, -3.16, -2.33, -1.2, -0.8, 0.0, 2.6, 5.43, 7.35, 8.03, 7.9, 8.18, 6.9, 5.51, 3.32, 0.0, -1.26, -2.24, -3.58, -5.36, -5.81, -7.11, -7.21, -6.8, -6.44, -7.32, -8.32, -8.03, -7.41, -6.35, -6.35, 0.71, 1.24, 1.86, 2.4, 2.4, 2.4, 2.6, 2.6, 2.6, 3.07, 3.07, 3.07, 3.07, 2.68, 1.79, 1.79, 1.2, 1.26, 1.24, 0.54, 0.0, 0.0, 0.0, 1.2, 0.99, 0.0, 0.0, 0.0, 0.0, -0.63, -0.95, -0.8, -0.57, -0.57, -0.8, -1.26, -1.26, -0.8, 0.0, 0.0, 1.34, 2.24, 3.13, 3.13, 3.13, 3.13, 2.68, 2.68, 2.68, 2.68, 2.68, 2.68, 2.68, 2.68, 2.68, 2.68, 2.24, 2.24, 0.0, 0.0, 0.0, 2.68, 3.13, 2.98, 4.15, 4.15, 2.97, 0.0, -3.35, -3.35, 0.0, 2.33, 3.98, 4.66, 3.19, 1.67, 0.0, 0.0, 1.6, 2.31, 2.47, 0.89, -1.34, -1.9, -3.13, -4.02, -4.85, -5.16, -7.55, -7.56, -7.42, -7.03, -8.63, -8.88, -8.67, -7.69, -7.44, -7.44, 0.71, 1.24, 1.58, 2.4, 2.4, 2.4, 2.4, 2.6, 2.6, 2.6, 2.6, 2.6, 2.6, 2.17, 1.7, 1.2, 1.2, 1.2, 1.0, 0.85, 1.2, 0.6, 0.95, 1.0, 0.0, 0.0, 0.0, 0.0, 0.0, 0.0, 0.0, -0.95, -0.6, -0.8, -0.57, -0.71, -0.71, -0.71, 0.0, 0.0, 0.71, 1.58, 1.58, 1.86, 1.86, 2.68, 2.68, 2.68, 2.68, 2.68, 2.68, 2.68, 2.68, 3.13, 2.24, 2.24, 2.68, 0.0, 0.0, 0.0, 0.0, 2.24, 3.2, 3.16, 3.6, 3.6, 2.98, 1.79, 0.0, 0.79, 2.49, 4.76, 4.7, 3.14, 0.0, -3.78, -7.12, -8.01, -3.96, -1.58, -0.82, 0.0, -0.95, -1.98, -2.4, -2.24, -2.0, -2.23, -5.64, -6.66, -8.01, -8.82, -8.63, -9.49, -8.93, -8.63, -8.05, -8.05, 0.71, 1.24, 1.58, 1.9, 1.9, 1.9, 2.4, 2.4, 2.6, 2.6, 2.17, 2.17, 2.12, 2.12, 1.7, 1.6, 1.2, 0.95, 0.8, 1.2, 0.85, 1.24, 1.24, 0.71, 0.65, 0.53, 0.0, 0.0, 0.0, 0.0, 0.0, 0.0, 0.0, 0.0, -0.57, -0.71, -0.71, -0.54, 0.0, 0.0, 0.0, 0.65, 1.2, 1.2, 1.49, 2.21, 1.9, 2.24, 2.24, 2.24, 2.68, 3.13, 3.13, 3.13, 3.13, 2.68, 2.4, 0.0, 0.0, -1.9, 0.0, -0.0, 1.8, 2.84, 2.21, 2.21, 2.4, 2.24, 3.16, 4.16, 5.64, 6.31, 5.37, 2.36, -2.32, -7.23, -12.42, -11.87, -9.48, -6.33, -3.16, -1.67, -1.13, -0.8, -0.0, 0.0, 0.0, 0.0, -2.41, -5.34, -7.71, -8.14, -7.35, -7.47, -8.25, -8.4, -8.14, -8.14, 0.71, 1.24, 1.24, 1.49, 1.24, 1.58, 2.4, 2.6, 2.6, 2.4, 2.4, 1.86, 1.86, 1.86, 1.86, 1.26, 1.26, 0.6, 0.6, 0.57, 1.2, 1.2, 1.2, 0.65, 0.53, 0.61, 0.61, 0.61, 0.0, 0.0, 0.0, 0.0, 0.0, 0.0, 0.0, 0.0, 0.0, 0.0, 0.0, 0.0, 0.0, 0.0, 0.53, 0.65, 1.2, 1.24, 1.9, 1.58, 2.24, 2.24, 2.68, 2.68, 3.13, 3.58, 3.58, 3.58, 2.6, 1.0, 0.0, -2.24, -0.0, 1.2, 1.98, 1.74, 1.9, 2.4, 2.24, 2.24, 2.97, 5.64, 7.6, 9.42, 8.06, 4.0, -6.44, -10.65, -13.99, -14.39, -12.9, -10.19, -7.36, -3.61, -1.63, -1.2, 0.0, 0.0, -1.34, -2.21, -3.79, -4.75, -5.69, -4.4, -2.97, -3.2, -4.93, -6.54, -6.94, -6.94, 0.0, 0.0, 0.71, 1.0, 1.24, 2.23, 2.4, 2.63, 2.63, 2.4, 2.4, 2.4, 1.86, 1.86, 1.86, 1.86, 1.58, 1.26, 0.8, 0.57, 0.71, 0.65, 0.65, 0.53, 0.61, 0.61, 0.61, 0.61, 0.61, 0.0, 0.0, 0.0, 0.0, 0.0, 0.0, 0.0, 0.0, 0.0, 0.0, 0.0, 0.0, 0.0, 0.0, 0.65, 1.2, 1.2, 0.0, 0.0, 0.0, 2.24, 2.24, 2.68, 3.13, 3.13, 3.58, 3.58, 2.97, 2.4, 0.0, -1.79, -1.26, 1.0, 1.9, 1.9, 2.97, 3.13, 2.68, 1.79, 1.26, 2.24, 4.02, 5.6, 3.29, 1.27, -2.84, -7.15, -11.28, -13.42, -13.33, -12.25, -9.57, -6.42, -3.27, -2.4, -1.98, -2.4, -2.97, -3.58, -4.19, -3.58, -3.84, -0.8, 0.0, 0.0, -2.23, -4.4, -5.6, -5.6, 0.0, 0.0, 0.0, 0.71, 1.9, 2.4, 2.91, 3.07, 2.63, 2.4, 2.4, 2.4, 2.4, 1.86, 1.86, 1.58, 1.58, 1.24, 1.24, 0.57, 0.71, 0.54, 0.65, 0.65, 0.53, 0.61, 0.61, 0.61, 0.61, 0.0, 0.0, 0.0, 0.0, 0.0, 0.0, 0.0, 0.0, 0.0, 0.0, 0.0, 0.0, 0.0, 0.61, 0.53, 1.2, 1.2, 1.4, 1.9, 1.58, 1.9, 1.9, 2.68, 2.68, 3.13, 3.13, 3.13, 2.68, 2.68, 2.24, 0.0, -1.79, -0.0, 1.0, 2.54, 3.47, 3.58, 3.13, 2.8, 1.2, 0.0, 0.0, -2.23, 0.0, 0.8, 1.27, -3.82, -7.6, -10.04, -11.76, -11.47, -11.04, -7.96, -5.64, -3.9, -3.16, -3.47, -3.47, -2.97, -2.24, -1.58, -2.0, 0.0, 0.8, 0.0, -1.58, -3.83, -4.8, -4.8, 0.0, 0.0, 0.0, 0.57, 1.24, 2.15, 2.91, 3.07, 3.07, 2.49, 2.8, 2.15, 2.15, 1.9, 1.9, 1.58, 1.58, 1.24, 1.24, 1.24, 0.71, 0.54, 0.65, 0.65, 0.65, 0.53, 0.61, 0.61, 0.61, 0.0, 0.0, 0.0, 0.0, 0.0, 0.0, 0.0, 0.0, 0.0, 0.0, 0.0, 0.0, 0.0, 0.61, 0.53, 0.65, 0.65, 0.65, 0.65, 0.54, 1.2, 1.24, 2.21, 1.9, 2.68, 2.68, 2.68, 3.13, 2.24, 0.0, 0.0, 0.0, 0.0, 1.58, 2.97, 3.9, 3.58, 3.58, 3.47, 2.8, -2.0, -4.19, -3.32, 0.0, 2.37, 3.13, 2.31, -0.79, -5.75, -8.67, -10.25, -10.53, -9.52, -7.31, -5.0, -3.48, -2.68, -2.0, -0.0, -0.0, -0.76, -1.2, 0.0, 0.0, 0.0, -1.74, -3.45, -3.45, -3.45, 0.0, 0.0, 0.0, 0.57, 1.86, 2.8, 2.91, 2.91, 3.07, 2.4, 2.4, 2.15, 2.15, 2.15, 1.9, 1.9, 1.9, 1.24, 1.24, 1.24, 1.0, 0.65, 0.65, 0.65, 0.65, 0.53, 0.53, 0.61, 0.61, 0.0, 0.0, 0.0, 0.0, 0.0, 0.0, 0.0, 0.0, 0.0, 0.0, 0.0, 0.0, 0.0, 0.0, 0.53, 0.65, 0.65, 0.65, 0.65, 0.65, 0.65, 0.65, 0.71, 1.9, 1.9, 1.9, 2.68, 2.68, 2.68, 0.0, 0.0, 0.0, 0.0, 1.79, 3.39, 3.58, 3.58, 3.58, 4.02, 1.34, -2.24, -4.22, -3.6, -0.8, 1.54, 3.9, 6.42, 4.24, -3.69, -8.14, -9.75, -10.43, -10.0, -8.55, -5.69, -3.07, -2.24, -0.0, -0.0, -0.0, -1.6, -1.98, -1.79, -1.9, -1.74, -2.21, -2.84, -3.22, -3.22, 0.0, 0.0, 0.0, 1.26, 2.4, 2.49, 2.91, 2.91, 2.91, 2.4, 2.4, 2.4, 2.15, 2.5, 1.9, 1.9, 1.9, 1.49, 1.49, 1.2, 1.2, 1.2, 0.65, 0.65, 0.65, 0.53, 0.53, 0.53, 0.61, 0.61, 0.0, 0.61, 0.0, 0.0, 0.0, 0.0, 0.0, 0.0, 0.0, 0.0, 0.0, 0.0, 0.0, 0.0, 0.0, 0.0, 0.0, 0.0, 0.0, 0.0, 0.65, 0.65, 0.71, 0.71, 1.2, 2.0, 2.68, 2.68, 1.79, 0.0, 0.0, 0.0, 2.68, 3.13, 4.02, 3.13, 3.13, 2.24, 0.0, -2.24, -3.58, -3.47, -2.47, 0.0, 4.1, 6.47, 5.61, 0.71, -6.28, -9.36, -10.45, -10.01, -9.05, -6.7, -4.46, -3.04, -2.4, -0.0, -0.0, -0.0, -0.76, -1.6, -3.39, -2.98, -3.2, -2.86, -3.45, -3.45, 0.0, 0.0, 0.6, 1.49, 2.6, 2.63, 2.91, 2.91, 2.91, 2.4, 2.4, 2.23, 1.9, 2.15, 2.5, 1.88, 1.88, 1.61, 1.2, 1.2, 1.2, 1.2, 0.65, 0.65, 0.65, 0.53, 0.53, 0.53, 0.53, 0.61, 0.61, 0.61, 0.61, 0.0, 0.0, 0.0, 0.0, 0.0, 0.0, 0.0, 0.0, 0.0, 0.0, 0.0, 0.0, 0.0, 0.0, 0.0, 0.0, 0.0, 0.0, 0.0, 0.71, 0.57, 0.57, 1.58, 2.24, 1.9, 1.79, 1.34, 0.0, 0.0, 1.79, 2.68, 3.13, 3.58, 1.26, 0.0, 0.0, -1.26, -2.84, -3.47, -3.91, -3.15, -0.81, 0.0, 0.0, 1.58, -2.97, -7.55, -9.26, -9.21, -8.91, -7.28, -4.93, -3.13, -1.9, -1.0, -0.0, 0.85, 0.99, -0.0, -2.24, -2.97, -3.2, -3.6, -3.83, -3.83, 0.0, 0.0, 0.8, 1.86, 2.6, 2.63, 2.91, 2.91, 2.91, 2.91, 2.4, 1.86, 1.86, 1.9, 1.9, 1.88, 1.88, 1.88, 1.88, 1.2, 1.2, 1.2, 1.2, 0.65, 0.53, 0.53, 0.53, 0.53, 0.53, 0.53, 0.61, 0.61, 0.61, 0.51, 0.0, 0.0, 0.0, 0.0, 0.0, 0.0, 0.0, 0.0, 0.0, 0.0, 0.0, 0.0, 0.0, 0.0, 0.0, 0.0, 0.0, 0.0, 0.0, 0.0, 0.0, 0.0, 0.0, 2.24, 1.79, 1.79, -0.0, 0.0, 0.0, 2.24, 3.13, 2.97, 1.58, 0.0, -1.34, -1.79, -1.98, -2.64, -3.15, -4.83, -7.82, -8.05, -5.62, -2.34, -1.98, -4.15, -7.55, -8.91, -8.91, -7.2, -5.16, -1.79, -0.95, 0.0, -0.0, 1.2, 1.98, 2.21, 0.95, -1.79, -2.54, -3.2, -4.4, -4.4, 0.0, 0.0, 1.24, 1.86, 2.6, 2.63, 2.91, 2.91, 2.91, 2.91, 2.91, 2.4, 2.23, 2.23, 1.9, 2.21, 1.88, 1.88, 1.88, 1.88, 1.4, 1.2, 1.16, 1.16, 0.53, 0.53, 0.65, 0.65, 0.53, 0.53, 0.53, 0.61, 0.61, 0.51, 0.0, 0.0, 0.0, 0.0, 0.0, 0.0, 0.0, 0.0, 0.0, 0.0, 0.0, 0.0, 0.0, 0.0, 0.0, 0.0, 0.0, 0.0, 0.0, 0.0, 0.0, 0.0, 0.0, 0.89, 1.34, 1.26, -0.0, -0.0, -0.0, 1.34, 2.68, 2.68, 2.0, 0.0, -1.26, -3.13, -4.0, -2.47, -1.68, -3.19, -8.05, -10.54, -9.66, -7.13, -4.26, -3.47, -5.36, -7.69, -8.4, -7.48, -4.9, -2.6, -1.0, 0.0, 0.0, 0.8, 1.74, 2.6, 1.79, 0.0, -1.79, -2.97, -4.15, -4.15, 0.0, 0.0, 1.2, 1.9, 2.4, 2.49, 2.91, 2.91, 2.91, 2.91, 2.68, 2.5, 2.15, 2.23, 1.9, 1.9, 1.88, 1.88, 1.88, 1.61, 1.16, 1.16, 1.16, 1.16, 1.16, 0.53, 0.65, 0.65, 0.65, 0.65, 0.0, 0.0, 0.53, 0.61, 0.0, 0.0, 0.0, 0.0, 0.0, 0.0, 0.0, 0.0, 0.0, 0.0, 0.0, 0.0, 0.0, 0.0, 0.0, 0.0, 0.0, 0.0, -0.6, 0.0, 0.0, 0.0, 0.0, 0.0, 0.0, -0.0, -0.0, -0.0, -0.0, 0.0, 1.79, 2.24, 1.34, 0.0, -1.41, -3.79, -4.22, -4.22, -0.79, 0.0, -2.37, -7.91, -10.47, -8.61, -6.45, -4.16, -4.41, -5.77, -6.51, -6.41, -5.21, -3.78, -2.23, -0.79, 0.0, 0.8, 1.79, 2.54, 2.68, 1.58, 0.0, -1.26, -2.21, -2.21, 0.51, 0.51, 1.16, 1.61, 2.4, 2.4, 2.49, 2.91, 2.91, 2.91, 2.5, 2.5, 2.5, 2.15, 1.9, 1.9, 1.61, 1.88, 1.61, 1.61, 1.16, 1.16, 1.16, 1.16, 1.16, 0.65, 0.65, 0.65, 0.76, 0.65, 0.0, 0.0, 0.0, 0.0, 0.0, 0.0, 0.0, 0.0, 0.0, 0.0, 0.0, 0.0, 0.0, 0.0, 0.0, 0.0, 0.0, 0.0, 0.0, 0.0, -0.8, -0.6, -0.6, -0.95, -0.95, 0.0, 0.0, -0.89, 0.0, -0.0, -0.0, -0.0, 0.0, 0.0, 1.34, 2.0, 1.26, -2.21, -1.7, -1.41, -2.98, -3.47, -3.48, 0.0, 0.0, -3.89, -8.06, -7.82, -6.2, -5.09, -3.64, -3.2, -3.74, -3.48, -4.11, -3.78, -2.84, -1.88, 0.0, 0.0, 1.74, 2.54, 2.54, 2.53, 0.0, 0.0, -0.85, -0.85, 0.59, 0.59, 1.33, 1.88, 2.5, 2.4, 2.4, 2.4, 2.8, 2.8, 2.5, 2.5, 2.5, 2.5, 2.15, 1.9, 1.9, 1.88, 1.61, 1.61, 1.16, 1.16, 1.16, 1.16, 1.16, 0.65, 0.65, 0.65, 0.53, 0.76, 0.65, 0.65, 0.65, 0.0, 0.0, 0.0, 0.0, 0.0, 0.0, 0.0, 0.0, 0.0, 0.0, 0.0, 0.0, 0.0, 0.0, 0.0, 0.0, -0.71, -0.57, -0.8, -0.8, -0.6, -0.95, -0.95, -0.6, -0.95, -1.34, -1.34, -0.95, -1.34, 0.0, 0.0, 1.79, 2.24, 2.0, 0.0, 0.0, 0.0, 0.0, -1.79, -4.38, -4.96, -2.4, -1.6, -3.06, -4.02, -4.4, -4.37, -2.23, -0.72, -0.79, -0.73, -1.16, -1.84, -1.14, -0.58, 0.0, 0.89, 1.7, 2.41, 2.53, 1.8, 1.55, 0.0, 0.0, 0.0, 0.59, 0.59, 1.13, 1.61, 1.88, 2.15, 2.4, 2.4, 2.4, 2.4, 2.4, 2.15, 2.15, 2.5, 2.15, 1.9, 1.9, 1.61, 1.88, 1.16, 1.16, 1.16, 1.16, 1.16, 1.16, 0.53, 0.65, 0.65, 0.53, 0.53, 0.53, 0.53, 0.53, 0.0, 0.0, 0.0, 0.0, 0.0, 0.0, 0.0, 0.0, 0.0, 0.0, 0.0, 0.0, 0.0, 0.0, -0.65, -0.65, -0.65, -0.71, -0.71, -0.57, -0.8, -0.8, -0.6, -0.6, -0.8, -0.95, -1.34, -2.24, -1.79, 0.0, 1.79, 2.0, 2.0, 2.24, 1.79, 0.0, 0.0, 0.0, -2.68, -5.01, -7.97, -7.2, -2.34, 0.78, 1.2, -0.95, -2.2, -2.26, -1.49, 0.0, 0.0, 0.0, 0.0, 0.0, 0.0, 0.0, 0.84, 2.26, 2.64, 1.55, 0.73, 0.0, 0.0, 0.0, 0.0, 0.59, 0.59, 1.13, 1.16, 1.88, 1.61, 1.9, 2.15, 2.15, 2.4, 2.4, 2.4, 2.15, 2.15, 2.5, 1.9, 1.9, 1.61, 1.88, 1.16, 1.16, 1.16, 1.16, 1.16, 1.16, 0.53, 0.53, 0.65, 0.53, 0.53, 0.53, 0.53, 0.53, 0.0, 0.0, 0.0, 0.0, 0.0, 0.0, 0.0, 0.0, 0.0, 0.0, 0.0, 0.0, 0.0, 0.0, -0.65, -0.65, -0.65, -0.65, -0.71, -0.71, -0.71, -0.57, -1.26, -1.26, -1.26, -0.8, -1.26, -1.79, -1.79, 0.0, 1.9, 1.9, 1.9, 1.58, 1.79, 0.0, 0.0, -1.26, -1.8, -3.91, -6.2, -6.2, -2.32, 3.09, 4.81, 2.37, -1.62, -4.37, -3.6, -2.12, -0.71, 0.0, 0.0, 0.0, 0.0, 0.0, 0.77, 1.52, 1.58, 1.55, 0.72, 0.0, 0.0, 0.0, 0.0, 0.59, 0.59, 1.13, 1.16, 1.16, 1.61, 1.61, 1.9, 1.9, 2.4, 2.4, 2.4, 2.15, 2.15, 2.5, 2.15, 1.9, 1.61, 1.88, 1.16, 1.16, 1.16, 1.16, 1.16, 1.16, 0.53, 0.53, 0.53, 0.53, 0.53, 0.53, 0.53, 0.0, 0.0, 0.0, 0.0, 0.0, 0.0, 0.0, 0.0, 0.0, 0.0, 0.0, 0.0, 0.0, 0.0, 0.0, -0.65, -0.65, -0.65, -0.65, -0.65, -0.71, -0.71, -0.71, -1.24, -1.58, -1.26, -1.26, -0.8, -1.58, -0.95, 0.0, 1.0, 1.58, 2.24, 1.79, 2.0, 1.79, 0.0, 0.0, -0.99, -1.18, -1.56, -3.11, -1.55, 0.77, 3.24, 2.37, -0.71, -5.02, -4.94, -3.64, -1.45, 0.0, 0.0, 0.0, 0.0, 0.0, 0.0, 0.0, 0.74, 0.8, 0.0, 0.0, 0.0, 0.0, 0.0, 0.51, 0.51, 0.51, 0.61, 1.16, 1.2, 1.2, 1.61, 1.9, 2.4, 2.4, 2.4, 2.15, 2.15, 1.9, 1.9, 1.9, 1.61, 1.88, 1.16, 1.16, 1.16, 1.16, 1.16, 1.16, 0.61, 0.53, 0.53, 0.53, 0.53, 0.53, 0.53, 0.0, 0.0, 0.0, 0.0, 0.0, 0.0, 0.0, 0.0, 0.0, 0.0, 0.0, 0.0, 0.0, 0.0, -0.65, -0.65, -0.65, -0.65, -0.65, -0.65, -1.0, -1.24, -1.24, -1.24, -1.24, -1.58, -1.26, -1.26, -1.26, -0.95, 0.0, -0.0, -0.0, 0.0, 1.26, 2.0, 2.0, 1.34, 0.0, 0.0, 1.41, 0.0, -0.8, -3.19, -3.11, -2.3, -3.22, -2.85, -2.76, -3.55, -3.16, -2.2, -0.78, 0.0, 0.0, 0.0, 0.0, 0.0, 0.0, 0.0, 0.0, 0.0, 0.0, 0.0, -0.74, -0.69, 0.0, 0.0, 0.51, 0.61, 0.61, 1.0, 1.2, 1.61, 1.9, 2.4, 2.4, 2.15, 2.15, 1.9, 1.9, 1.9, 1.9, 1.61, 1.4, 1.16, 1.16, 1.16, 1.16, 1.16, 1.16, 1.16, 0.53, 0.53, 0.53, 0.53, 0.53, 0.53, 0.0, 0.0, 0.0, 0.0, 0.0, 0.0, 0.0, 0.0, 0.0, 0.0, 0.0, 0.0, 0.0, 0.0, -0.65, -1.2, -1.2, -1.2, -1.2, -1.2, -1.24, -1.24, -1.24, -1.24, -1.24, -1.24, -1.26, -1.26, -1.26, -1.2, -1.79, -0.0, -0.0, 0.0, 1.58, 1.26, 1.26, 1.34, 0.0, 0.0, 0.0, 0.76, 0.79, -1.55, -4.75, -7.11, -6.44, -4.34, -1.45, -1.43, -2.8, -2.3, -0.7, 0.0, 0.0, 0.0, 0.0, 0.0, 0.0, 0.0, 0.0, 0.0, 0.0, 0.0, -0.69, -0.74, 0.0, 0.0, 0.0, 0.0, 0.61, 0.53, 1.2, 1.61, 2.15, 2.15, 2.15, 1.9, 1.9, 1.9, 1.9, 1.9, 1.9, 1.9, 1.16, 1.16, 1.16, 1.16, 1.16, 1.16, 1.16, 1.16, 0.61, 0.53, 0.53, 0.53, 0.53, 0.53, 0.0, 0.0, 0.0, 0.0, 0.0, 0.0, 0.0, 0.0, 0.0, 0.0, 0.0, 0.0, 0.0, 0.0, -1.24, -1.24, -1.24, -1.24, -1.24, -1.24, -1.24, -1.24, -1.24, -1.24, -1.24, -1.58, -1.58, -1.58, -1.58, -1.6, -1.34, 0.0, 0.0, -0.0, -0.0, -0.0, 0.0, 0.0, 0.0, -1.34, -1.8, 0.0, 2.2, 3.17, 0.0, -4.87, -6.35, -4.31, -2.1, -1.36, -2.18, -1.33, 0.0, 0.0, 0.0, 0.0, 0.0, 0.0, 0.0, 0.0, 0.0, 0.0, 0.0, -0.81, -0.71, -0.69, 0.0, 0.0, 0.0, 0.0, 0.61, 0.53, 1.2, 1.9, 1.9, 1.9, 1.9, 1.9, 1.9, 1.9, 1.9, 1.9, 1.9, 1.9, 1.16, 1.16, 1.16, 1.16, 1.16, 1.16, 1.16, 1.16, 0.61, 0.53, 0.53, 0.53, 0.53, 0.0, 0.0, 0.0, 0.0, 0.0, 0.0, 0.0, 0.0, 0.0, 0.0, 0.0, 0.0, -0.71, -0.71, -0.99, -0.71, -1.26, -1.26, -1.24, -1.24, -1.24, -1.24, -1.24, -1.24, -1.24, -1.24, -1.58, -1.58, -1.58, -1.86, -2.12, -2.24, 0.0, 0.0, 0.0, -0.0, 0.0, 0.0, 0.0, 0.0, -2.24, -2.84, -1.52, 1.26, 4.52, 4.67, 1.6, -3.19, -4.42, -2.2, -0.76, -0.76, 0.0, 0.0, 0.0, 0.0, 0.0, 0.0, 0.0, 0.0, 0.0, -0.79, -0.82, -0.78, -0.81, -0.81, -0.81, 0.0, 0.0, 0.0, 0.0, 0.0, 0.53, 1.2, 1.9, 1.9, 1.9, 1.9, 1.9, 1.9, 1.9, 1.9, 1.9, 1.9, 1.2, 1.2, 1.16, 1.16, 1.16, 1.4, 1.16, 1.16, 1.16, 0.61, 0.61, 0.53, 0.53, 0.0, 0.0, 0.0, 0.0, 0.0, 0.0, 0.0, 0.0, 0.0, 0.0, 0.0, 0.0, -0.54, -0.71, -0.54, -0.54, -0.71, -0.57, -0.8, -0.99, -1.58, -1.24, -1.24, -1.24, -1.24, -1.24, -1.58, -1.86, -1.86, -1.86, -2.23, -1.86, -1.34, 0.0, 0.0, 0.0, 0.0, 0.0, 0.0, 0.0, -1.34, -2.68, -3.6, -2.0, -1.23, 0.0, 2.3, 4.77, 3.1, 0.0, -1.34, 0.0, 0.0, 0.0, -0.7, -0.82, -0.78, -0.84, -0.77, -0.78, -0.75, -1.56, -1.52, -1.56, -1.68, -1.6, -1.6, -1.6, 0.0, 0.0, 0.0, 0.0, 0.61, 0.53, 1.2, 1.61, 1.61, 1.61, 1.61, 1.9, 1.9, 1.9, 1.9, 1.9, 1.49, 1.2, 1.2, 1.4, 1.4, 1.4, 1.4, 1.16, 1.16, 0.61, 0.61, 0.61, 0.53, 0.53, 0.0, 0.0, 0.0, 0.0, 0.0, 0.0, 0.0, 0.0, 0.0, 0.0, 0.0, 0.0, -0.54, -0.54, -0.54, -0.54, -0.54, -0.71, -0.71, -0.71, -1.24, -1.24, -1.24, -1.24, -1.24, -1.58, -1.86, -1.86, -1.86, -2.23, -1.9, -2.23, -1.7, -1.79, 0.0, 0.0, 2.24, 2.24, 0.0, 0.0, -1.34, -2.68, -3.2, -3.79, -3.72, -3.27, -1.58, 2.34, 6.46, 6.35, 4.8, 2.76, 0.7, -1.36, -2.75, -2.99, -2.99, -3.15, -3.21, -3.11, -3.02, -2.95, -2.34, -2.31, -2.39, -2.47, -2.47, -2.47, 0.0, 0.0, 0.0, 0.0, 0.61, 1.0, 1.2, 1.61, 1.61, 1.61, 1.61, 1.9, 1.9, 1.9, 1.49, 1.49, 1.2, 1.2, 1.2, 1.2, 1.2, 1.2, 1.4, 1.16, 1.16, 0.61, 0.61, 0.61, 0.61, 0.53, 0.0, 0.0, 0.0, 0.0, 0.0, 0.0, 0.0, 0.0, 0.0, 0.0, 0.0, -0.54, -0.54, -0.54, -0.71, -0.54, -0.54, -0.54, -0.54, -1.24, -1.24, -1.24, -1.24, -1.24, -1.24, -1.9, -2.23, -2.23, -2.4, -2.23, -1.9, -2.23, -2.12, -1.34, 0.0, 0.0, 2.24, 0.0, 0.0, 0.0, -2.24, -2.4, -2.98, -3.35, -2.8, -1.72, -0.84, 0.8, 4.81, 9.79, 11.4, 9.32, 5.09, 0.0, -3.51, -5.3, -5.21, -5.38, -5.52, -5.52, -4.36, -3.85, -4.01, -3.16, -3.25, -3.11, -3.11, -3.11, 0.0, 0.0, 0.0, 0.51, 0.61, 1.16, 1.4, 1.4, 1.2, 1.2, 1.2, 1.49, 1.49, 1.24, 1.49, 1.2, 1.2, 1.2, 1.2, 1.2, 1.2, 1.2, 1.4, 1.16, 0.61, 0.61, 0.61, 0.61, 0.61, 0.53, 0.53, 0.0, 0.0, 0.0, 0.0, 0.0, 0.0, 0.0, 0.0, 0.0, 0.0, -0.54, -0.54, -0.54, -0.71, -0.71, -0.54, -0.65, -1.2, -1.49, -1.24, -1.24, -1.24, -1.58, -1.9, -1.9, -2.23, -2.4, -2.4, -2.4, -2.23, -1.9, -1.86, -1.7, -0.89, 0.0, 1.79, 0.0, 0.0, 0.0, -1.34, -2.24, -2.4, -1.98, 0.0, 0.0, 0.0, 0.8, 3.95, 8.01, 10.98, 11.16, 8.75, 5.73, 0.0, -5.09, -6.7, -6.95, -6.88, -6.69, -5.72, -5.52, -5.63, -5.0, -4.8, -4.6, -4.6, -4.6, 0.0, 0.0, 0.0, 0.51, 1.16, 1.16, 1.16, 1.4, 1.4, 1.2, 1.2, 1.2, 1.24, 1.24, 1.0, 0.65, 0.65, 0.65, 1.2, 1.2, 1.2, 1.2, 1.0, 0.61, 0.61, 0.61, 0.61, 0.61, 0.61, 0.53, 0.53, 0.0, 0.0, 0.0, 0.0, 0.0, 0.0, 0.0, 0.0, 0.0, 0.0, -0.54, -0.54, -0.71, -0.71, -0.71, -0.71, -1.0, -1.2, -1.49, -1.49, -1.49, -1.49, -1.9, -1.9, -2.15, -2.15, -2.8, -2.4, -2.4, -2.23, -1.9, -1.58, -1.86, -1.34, 0.0, 0.0, 0.0, -0.0, -0.0, 0.0, 0.0, 0.0, 0.0, 0.0, 1.0, 0.98, 1.72, 4.5, 6.64, 7.82, 8.03, 7.84, 8.8, 6.32, -0.74, -7.47, -7.54, -7.02, -6.32, -5.76, -6.14, -6.31, -6.2, -6.2, -5.41, -5.41, -5.41, 0.0, 0.0, 0.0, 0.51, 1.16, 1.16, 1.16, 1.16, 1.16, 1.2, 1.2, 1.2, 1.0, 0.54, 0.54, 0.54, 0.54, 0.54, 0.54, 0.65, 0.65, 0.65, 0.65, 0.53, 1.0, 1.0, 0.53, 0.53, 0.53, 0.53, 0.53, 0.53, 0.0, 0.0, 0.0, 0.0, 0.0, 0.0, 0.0, 0.0, 0.0, -0.54, -0.54, -0.71, -0.71, -0.71, -0.71, -1.24, -1.24, -1.49, -1.49, -1.49, -1.9, -1.9, -2.5, -2.5, -2.5, -2.5, -2.8, -2.4, -2.4, -1.86, -1.58, -1.58, -1.2, 0.0, 0.0, 0.0, -0.0, -0.0, -0.0, -0.0, -0.0, 0.0, 0.0, 1.58, 1.13, 2.76, 5.06, 5.37, 4.96, 5.29, 7.7, 9.32, 8.48, 4.08, -3.84, -6.66, -5.06, -5.37, -6.01, -5.89, -6.04, -5.9, -6.05, -5.64, -5.64, -5.64, 0.0, 0.0, 0.59, 0.51, 1.16, 1.16, 1.16, 1.16, 1.16, 1.16, 1.2, 1.2, 0.65, 0.54, 0.54, 0.54, 0.54, 0.54, 0.54, 0.54, 0.65, 0.65, 0.65, 0.65, 1.2, 1.2, 0.65, 0.65, 0.53, 0.53, 0.53, 0.53, 0.0, 0.0, 0.0, 0.0, 0.0, 0.0, 0.0, 0.0, 0.0, -0.54, -0.54, -0.71, -0.71, -0.71, -0.71, -1.24, -1.24, -1.49, -1.49, -1.49, -1.9, -1.9, -2.5, -2.5, -2.5, -2.5, -2.5, -2.4, -2.4, -1.86, -1.86, -1.58, -1.26, -0.89, -0.0, -0.0, -0.0, -0.0, -0.0, -0.0, -0.0, -0.0, 0.0, 1.26, 2.21, 3.16, 4.54, 4.29, 3.4, 4.2, 6.56, 7.93, 5.81, 4.24, -4.46, -4.92, -4.46, -3.72, -4.74, -4.95, -5.24, -5.1, -4.83, -4.83, -4.83, -4.83, 0.0, 0.0, 0.59, 0.51, 1.16, 1.16, 1.16, 1.16, 1.16, 1.16, 0.65, 0.65, 0.65, 0.54, 0.54, 0.54, 0.54, 0.54, 0.54, 0.54, 0.54, 0.65, 0.65, 0.65, 0.65, 0.65, 0.65, 0.65, 0.65, 0.65, 0.53, 0.53, 0.0, 0.0, 0.0, 0.0, 0.0, 0.0, 0.0, 0.0, 0.0, -0.54, -0.54, -0.71, -0.71, -0.71, -1.24, -1.24, -1.24, -1.49, -1.49, -1.9, -1.9, -1.88, -2.21, -2.5, -2.5, -2.5, -2.5, -2.4, -2.4, -2.0, -1.86, -1.86, -1.26, -1.79, -1.26, -1.2, -0.99, -0.0, -0.0, -0.0, 0.0, -0.0, 0.0, 1.34, 2.4, 2.6, 2.84, 3.63, 2.64, 3.2, 4.12, 4.06, 2.34, -0.0, -1.47, -2.86, -3.13, -2.53, -3.07, -4.46, -4.43, -5.06, -4.74, -4.43, -4.43, -4.43, 0.0, 0.0, 0.59, 0.99, 1.16, 1.16, 1.16, 1.16, 1.16, 0.61, 0.53, 0.65, 0.65, 0.54, 0.54, 0.54, 0.54, 0.54, 0.54, 0.54, 0.54, 0.54, 0.65, 0.65, 0.65, 0.65, 0.65, 0.65, 0.65, 0.65, 0.65, 0.65, 0.0, 0.0, 0.0, 0.0, 0.0, 0.0, 0.0, 0.0, 0.0, -0.54, -0.54, -0.71, -0.71, -0.71, -1.24, -1.24, -1.24, -1.49, -1.49, -1.9, -1.9, -2.21, -2.21, -2.5, -2.5, -2.5, -2.5, -2.4, -2.4, -2.6, -1.86, -1.86, -2.12, -1.79, -2.24, -2.4, -2.21, -2.21, -1.2, -0.0, 0.0, 0.0, 1.34, 1.34, 1.79, 2.4, 2.21, 1.66, 1.84, 2.47, 1.63, 0.79, -1.46, 0.0, 0.7, -0.0, -1.26, 0.0, -0.85, -3.16, -4.84, -5.58, -5.15, -5.21, -5.21, -5.21, 0.59, 0.59, 0.59, 1.13, 1.33, 1.33, 1.16, 1.16, 0.61, 0.61, 0.53, 0.65, 0.65, 0.54, 0.54, 0.54, 0.54, 0.71, 0.71, 0.54, 0.54, 0.54, 0.54, 0.65, 0.65, 0.65, 0.65, 0.65, 0.65, 0.65, 0.65, 0.65, 0.0, 0.0, 0.0, 0.0, 0.0, 0.0, 0.0, 0.0, 0.0, -0.54, -0.54, -0.71, -0.71, -0.71, -1.24, -1.24, -1.24, -1.49, -1.49, -1.9, -1.9, -2.5, -2.5, -2.5, -2.5, -2.5, -2.8, -2.8, -2.4, -2.6, -2.4, -2.4, -2.6, -2.6, -2.97, -2.24, -2.24, -1.58, -2.0, -2.0, -1.34, 0.0, 0.0, 0.0, 1.79, 1.58, 0.99, 0.0, 0.81, 1.6, 0.89, -1.58, -2.85, 0.0, 3.07, 2.98, 1.6, 1.34, 1.26, -1.0, -4.0, -5.2, -5.21, -4.6, -4.6, -4.6, 0.59, 0.59, 0.59, 1.13, 1.13, 1.13, 1.13, 0.51, 0.61, 0.61, 0.53, 0.65, 0.65, 0.54, 0.54, 0.54, 0.0, 0.71, 0.71, 0.71, 0.54, 0.54, 0.54, 0.54, 0.54, 0.54, 0.65, 0.65, 0.65, 0.65, 0.65, 0.0, 0.0, 0.0, 0.0, 0.0, 0.0, 0.0, 0.0, 0.0, 0.0, -0.54, -0.54, -0.71, -0.71, -0.71, -1.24, -1.24, -1.24, -1.49, -1.9, -1.9, -2.21, -2.5, -2.5, -2.5, -2.5, -2.5, -2.8, -2.8, -2.4, -2.6, -2.4, -2.4, -2.4, -3.07, -2.8, -1.9, 0.0, 0.0, 0.0, -1.79, -2.24, -1.79, -1.34, 0.0, 0.0, 0.0, 0.0, 0.0, 0.0, 0.82, 0.0, 0.0, -0.73, 0.0, 3.84, 4.15, 3.2, 2.23, 2.12, 0.89, -1.26, -3.39, -4.0, -3.47, -3.47, -3.47, 0.59, 0.59, 0.59, 1.13, 1.13, 1.13, 0.59, 0.59, 0.61, 0.61, 0.53, 0.65, 0.65, 0.54, 0.54, 0.0, 0.0, 0.0, 0.71, 0.71, 0.71, 0.71, 0.71, 0.71, 0.54, 0.54, 0.54, 0.54, 0.65, 0.65, 0.65, 0.0, 0.0, 0.0, 0.0, 0.0, 0.0, 0.0, 0.0, 0.0, 0.0, -0.54, -0.71, -0.71, -0.71, -1.24, -1.24, -1.24, -1.24, -1.49, -1.9, -1.9, -2.21, -2.5, -2.5, -2.5, -2.5, -2.8, -2.8, -2.8, -2.4, -2.6, -2.4, -2.4, -2.8, -2.91, -3.07, -1.88, 0.0, 0.0, 0.0, 0.0, -1.58, -2.0, -1.26, -1.79, -1.79, -2.21, -1.8, -0.88, -0.88, 0.0, 0.79, 2.39, 2.35, 0.0, 2.53, 4.19, 3.58, 2.15, 0.85, 0.95, 0.0, -1.34, -2.68, -2.68, -2.68, -2.68, 0.59, 0.59, 1.13, 1.13, 1.13, 1.13, 0.59, 0.59, 0.61, 0.61, 0.53, 0.65, 0.65, 0.54, 0.0, 0.0, 0.0, 0.0, 0.0, 0.71, 0.71, 0.71, 0.71, 0.71, 0.71, 0.71, 0.54, 0.54, 0.54, 0.54, 0.0, 0.0, 0.0, 0.0, 0.0, 0.0, 0.0, 0.0, 0.0, 0.0, -0.54, -0.54, -0.71, -0.71, -0.71, -1.24, -1.24, -1.24, -1.24, -1.9, -1.9, -1.9, -2.5, -2.5, -2.5, -2.5, -2.5, -2.8, -2.8, -2.91, -2.91, -2.6, -2.4, -2.8, -2.5, -2.91, -3.07, -2.21, -1.2, 0.0, 0.0, 0.0, -1.58, -1.0, -1.26, -1.79, -2.68, -2.98, -2.68, -2.68, -2.0, -0.89, -0.8, 0.78, 3.04, 0.0, 0.79, 3.79, 3.84, 2.41, -0.0, -0.0, 1.0, -0.0, -1.58, -2.4, -2.4, -2.4, 0.59, 0.59, 1.13, 1.13, 1.13, 0.59, 0.59, 0.59, 0.61, 0.61, 0.53, 0.65, 0.65, 0.54, 0.0, 0.0, 0.0, 0.0, 0.0, 0.0, 0.71, 0.71, 0.71, 0.71, 0.71, 0.71, 0.71, 0.54, 0.0, 0.0, 0.0, 0.0, 0.0, 0.0, 0.0, 0.0, 0.0, 0.0, 0.0, 0.0, -0.71, -0.71, -0.71, -0.71, -0.71, -1.24, -1.24, -1.24, -1.49, -1.9, -1.9, -2.21, -2.5, -2.5, -2.5, -2.5, -2.5, -2.91, -2.91, -2.91, -2.91, -2.63, -2.6, -2.8, -2.5, -3.07, -3.07, -3.07, -1.88, -1.9, -1.79, -1.79, -1.58, -1.0, -1.58, -1.79, -2.68, -2.98, -3.58, -3.16, -2.76, -2.47, -2.67, -2.39, 0.0, 0.0, -0.0, 2.88, 4.11, 2.84, 0.87, -0.0, -0.0, -0.0, -1.0, -1.9, -1.9, -1.9, 0.59, 0.59, 0.59, 1.13, 0.59, 0.59, 0.59, 0.59, 0.61, 0.61, 0.65, 0.65, 0.65, 0.0, 0.0, 0.0, 0.0, 0.0, 0.0, 0.0, 0.0, 0.0, 0.57, 0.57, 0.71, 0.0, 0.0, 0.0, 0.0, 0.0, 0.0, 0.0, 0.0, 0.0, 0.0, 0.0, 0.0, 0.0, 0.0, 0.0, -0.71, -0.71, -0.71, -0.71, -1.24, -1.24, -1.24, -1.24, -1.49, -1.9, -1.9, -2.21, -2.5, -2.5, -2.5, -2.5, -2.5, -2.91, -2.91, -2.91, -2.91, -3.07, -3.07, -2.8, -2.5, -3.07, -3.07, -3.07, -2.53, -2.98, -2.68, -2.24, -1.26, -1.26, -2.24, -2.68, -2.68, -2.97, -3.22, -3.58, -3.48, -3.47, -3.4, -4.0, -2.37, -0.78, -1.99, 0.87, 3.43, 3.16, 1.8, 0.73, -0.0, -0.0, -0.99, -1.74, -1.74, -1.74, 0.59, 0.59, 0.59, 0.59, 0.59, 0.59, 0.59, 0.51, 0.61, 0.53, 0.65, 0.65, 0.0, 0.0, 0.0, 0.0, 0.0, 0.0, 0.0, 0.0, 0.0, 0.0, 0.0, 0.0, 0.0, 0.0, 0.0, 0.0, 0.0, 0.0, 0.0, 0.0, 0.0, 0.0, 0.0, 0.0, 0.0, 0.0, 0.0, -0.71, -0.71, -0.71, -0.71, -0.71, -1.24, -1.24, -1.24, -1.24, -1.49, -1.9, -1.9, -2.5, -2.5, -2.5, -2.5, -2.5, -2.68, -2.91, -2.91, -2.91, -2.91, -3.07, -3.07, -2.91, -2.68, -3.07, -3.07, -3.07, -3.14, -2.79, -2.4, -2.24, 0.0, 0.0, -1.34, -2.24, -2.68, -2.68, -2.97, -3.35, -2.68, -3.47, -4.26, -4.83, -4.68, -3.25, -2.31, -1.58, 0.87, 2.3, 1.66, 0.73, -0.0, -0.0, -0.0, -0.87, -0.87, -0.87, 0.59, 0.59, 0.59, 0.59, 0.59, 0.59, 0.59, 0.61, 0.61, 0.53, 0.53, 0.0, 0.0, 0.0, 0.0, 0.0, 0.0, 0.0, 0.0, 0.0, 0.0, 0.0, 0.0, 0.0, 0.0, 0.0, 0.0, 0.0, 0.0, 0.0, 0.0, 0.0, 0.0, 0.0, 0.0, 0.0, 0.0, 0.0, 0.0, -0.71, -0.71, -0.71, -0.71, -1.24, -1.24, -1.24, -1.24, -1.24, -1.9, -1.9, -1.9, -2.5, -2.5, -2.5, -2.5, -2.5, -2.68, -2.91, -2.91, -2.91, -2.91, -3.07, -3.07, -2.91, -2.68, -3.07, -3.07, -3.2, -3.35, -2.84, -2.79, -1.9, 0.0, 1.58, 0.0, -1.79, -2.24, -2.68, -2.68, -3.47, -3.58, -4.29, -4.12, -4.2, -4.8, -3.23, -2.31, -1.6, -1.58, -0.0, 0.88, 0.81, -0.0, -0.0, -0.0, -0.0, -0.0, -0.0, 0.59, 0.59, 0.59, 0.59, 0.59, 0.59, 0.51, 0.61, 0.61, 0.0, 0.0, 0.0, 0.0, 0.0, 0.0, 0.0, 0.0, 0.0, 0.0, 0.0, 0.0, 0.0, 0.0, 0.0, 0.0, 0.0, 0.0, 0.0, 0.0, 0.0, 0.0, 0.0, 0.0, 0.0, 0.0, 0.0, 0.0, 0.0, -0.71, -0.71, -0.71, -0.71, -0.71, -1.24, -1.24, -1.24, -1.24, -1.24, -1.9, -1.9, -1.9, -2.5, -2.5, -2.5, -2.5, -2.68, -2.68, -2.91, -2.91, -2.91, -2.91, -2.91, -3.07, -2.91, -3.32, -3.07, -3.45, -3.6, -3.35, -3.43, -3.43, -1.88, 0.0, 0.0, 0.0, -1.79, -2.0, -2.68, -3.13, -3.9, -4.6, -4.29, -4.12, -4.2, -3.95, -3.29, -1.54, -0.8, -1.54, -1.8, -1.2, -0.0, -0.0, -0.0, -0.0, -0.0, -0.0, -0.0, 0.59, 0.59, 0.59, 0.59, 0.59, 0.59, 0.51, 0.61, 0.61, 0.0, 0.0, 0.0, 0.0, 0.0, 0.0, 0.0, 0.0, 0.0, 0.0, 0.0, 0.0, 0.0, 0.0, 0.0, 0.0, 0.0, 0.0, 0.0, 0.0, 0.0, 0.0, 0.0, 0.0, 0.0, 0.0, 0.0, 0.0, 0.0, -0.71, -0.71, -0.71, -0.71, -0.71, -1.24, -1.24, -1.24, -1.24, -1.24, -1.9, -1.9, -1.9, -2.5, -2.5, -2.5, -2.5, -2.68, -2.68, -2.91, -2.91, -2.91, -2.91, -2.91, -3.07, -2.91, -3.32, -3.07, -3.45, -3.6, -3.35, -3.43, -3.43, -1.88, 0.0, 0.0, 0.0, -1.79, -2.4, -2.68, -3.13, -3.9, -4.6, -4.29, -4.26, -4.0, -3.21, -3.11, -1.63, -0.77, 0.0, -0.75, -1.84, -2.0, -1.26, -0.0, -0.0, -0.0, -0.0, -0.0]}]